Wetterdaten: Sonntag, 30.05.2010
Datum Zeit Temp. Innen Temp. Aussen UV X Diff Temp. Feuchte Inne Feuchte Auss Sonnenschein Luftdruck Regen ab 0,1 Wind Sonnenschein Windben
30.05.2010 00:00 21,1 C 15,0 C 0,0 UV-I 0,0 C 49 % 77 % 0 % 1012,1 hPa 0,0 l/m 4,0 km/h (1 Bft) 0 min 7,4 km/h (2 Bft)
30.05.2010 00:03 21,1 C 15,0 C 0,0 UV-I 0,0 C 49 % 77 % 0 % 1012,1 hPa 0,0 l/m 3,2 km/h (1 Bft) 0 min 0,0 km/h (0 Bft)
30.05.2010 00:05 21,1 C 14,9 C 0,0 UV-I 0,0 C 49 % 77 % 0 % 1012,1 hPa 0,0 l/m 3,6 km/h (1 Bft) 0 min 5,1 km/h (1 Bft)
30.05.2010 00:06 21,1 C 14,9 C 0,0 UV-I 0,0 C 49 % 77 % 0 % 1012,1 hPa 0,0 l/m 3,6 km/h (1 Bft) 0 min 5,1 km/h (1 Bft)
30.05.2010 00:08 21,0 C 15,0 C 0,0 UV-I 0,0 C 49 % 77 % 0 % 1012,1 hPa 0,0 l/m 3,6 km/h (1 Bft) 0 min 0,0 km/h (0 Bft)
30.05.2010 00:10 21,1 C 15,0 C 0,0 UV-I 0,0 C 49 % 77 % 0 % 1012,1 hPa 0,0 l/m 3,6 km/h (1 Bft) 0 min 10,3 km/h (2 Bft)
30.05.2010 00:12 21,0 C 14,9 C 0,0 UV-I 0,0 C 49 % 77 % 0 % 1011,7 hPa 0,0 l/m 3,6 km/h (1 Bft) 0 min 0,0 km/h (0 Bft)
30.05.2010 00:14 21,0 C 14,9 C 0,0 UV-I 0,0 C 49 % 77 % 0 % 1011,7 hPa 0,0 l/m 3,6 km/h (1 Bft) 0 min 0,0 km/h (0 Bft)
30.05.2010 00:16 21,0 C 15,0 C 0,0 UV-I 0,0 C 49 % 77 % 0 % 1011,7 hPa 0,0 l/m 2,8 km/h (1 Bft) 0 min 7,1 km/h (2 Bft)
30.05.2010 00:18 21,0 C 14,9 C 0,0 UV-I 0,0 C 49 % 77 % 0 % 1011,7 hPa 0,0 l/m 2,4 km/h (1 Bft) 0 min 8,0 km/h (2 Bft)
30.05.2010 00:20 21,0 C 14,9 C 0,0 UV-I 0,0 C 50 % 78 % 0 % 1011,7 hPa 0,0 l/m 3,6 km/h (1 Bft) 0 min 12,6 km/h (3 Bft)
30.05.2010 00:22 21,0 C 15,0 C 0,0 UV-I 0,0 C 50 % 78 % 0 % 1011,7 hPa 0,0 l/m 3,6 km/h (1 Bft) 0 min 5,1 km/h (1 Bft)
30.05.2010 00:24 21,0 C 14,9 C 0,0 UV-I 0,0 C 50 % 78 % 0 % 1011,7 hPa 0,0 l/m 4,4 km/h (1 Bft) 0 min 0,0 km/h (0 Bft)
30.05.2010 00:26 21,0 C 15,0 C 0,0 UV-I 0,0 C 50 % 78 % 0 % 1011,7 hPa 0,0 l/m 5,2 km/h (1 Bft) 0 min 3,5 km/h (1 Bft)
30.05.2010 00:28 21,0 C 15,0 C 0,0 UV-I 0,0 C 50 % 78 % 0 % 1011,7 hPa 0,0 l/m 4,8 km/h (1 Bft) 0 min 0,0 km/h (0 Bft)
30.05.2010 00:30 21,0 C 15,0 C 0,0 UV-I 0,0 C 50 % 77 % 0 % 1011,7 hPa 0,0 l/m 4,4 km/h (1 Bft) 0 min 3,5 km/h (1 Bft)
30.05.2010 00:32 21,0 C 15,1 C 0,0 UV-I 0,0 C 50 % 77 % 0 % 1011,6 hPa 0,0 l/m 4,0 km/h (1 Bft) 0 min 5,1 km/h (1 Bft)
30.05.2010 00:34 21,0 C 15,0 C 0,0 UV-I 0,0 C 50 % 77 % 0 % 1011,6 hPa 0,0 l/m 3,2 km/h (1 Bft) 0 min 0,0 km/h (0 Bft)
30.05.2010 00:36 21,0 C 15,1 C 0,0 UV-I 0,0 C 50 % 78 % 0 % 1011,6 hPa 0,0 l/m 3,2 km/h (1 Bft) 0 min 7,1 km/h (2 Bft)
30.05.2010 00:38 21,0 C 15,1 C 0,0 UV-I 0,0 C 50 % 78 % 0 % 1011,6 hPa 0,0 l/m 3,2 km/h (1 Bft) 0 min 3,5 km/h (1 Bft)
30.05.2010 00:40 21,0 C 15,1 C 0,0 UV-I 0,0 C 50 % 78 % 0 % 1011,6 hPa 0,0 l/m 3,6 km/h (1 Bft) 0 min 6,4 km/h (2 Bft)
30.05.2010 00:42 21,0 C 15,1 C 0,0 UV-I 0,0 C 50 % 78 % 0 % 1011,6 hPa 0,0 l/m 4,0 km/h (1 Bft) 0 min 5,5 km/h (1 Bft)
30.05.2010 00:44 21,0 C 15,1 C 0,0 UV-I 0,0 C 50 % 78 % 0 % 1011,6 hPa 0,0 l/m 4,4 km/h (1 Bft) 0 min 5,5 km/h (1 Bft)
30.05.2010 00:46 21,0 C 15,1 C 0,0 UV-I 0,0 C 50 % 78 % 0 % 1011,6 hPa 0,0 l/m 5,2 km/h (1 Bft) 0 min 8,0 km/h (2 Bft)
30.05.2010 00:48 21,0 C 15,1 C 0,0 UV-I 0,0 C 50 % 78 % 0 % 1011,6 hPa 0,0 l/m 5,6 km/h (1 Bft) 0 min 10,6 km/h (2 Bft)
30.05.2010 00:50 21,0 C 15,0 C 0,0 UV-I 0,0 C 50 % 78 % 0 % 1011,6 hPa 0,0 l/m 5,6 km/h (1 Bft) 0 min 9,0 km/h (2 Bft)
30.05.2010 00:52 21,0 C 15,0 C 0,0 UV-I 0,0 C 50 % 78 % 0 % 1011,1 hPa 0,0 l/m 5,2 km/h (1 Bft) 0 min 3,9 km/h (1 Bft)
30.05.2010 00:54 21,0 C 15,1 C 0,0 UV-I 0,0 C 50 % 77 % 0 % 1011,1 hPa 0,0 l/m 5,2 km/h (1 Bft) 0 min 7,1 km/h (2 Bft)
30.05.2010 00:56 21,0 C 15,0 C 0,0 UV-I 0,0 C 50 % 77 % 0 % 1011,1 hPa 0,0 l/m 5,6 km/h (1 Bft) 0 min 4,8 km/h (1 Bft)
30.05.2010 00:58 21,0 C 15,0 C 0,0 UV-I 0,0 C 50 % 77 % 0 % 1011,1 hPa 0,0 l/m 5,2 km/h (1 Bft) 0 min 6,8 km/h (2 Bft)
30.05.2010 01:00 20,9 C 15,1 C 0,0 UV-I 0,0 C 50 % 77 % 0 % 1011,1 hPa 0,0 l/m 4,8 km/h (1 Bft) 0 min 0,0 km/h (0 Bft)
30.05.2010 01:02 20,9 C 15,0 C 0,0 UV-I 0,0 C 50 % 77 % 0 % 1011,1 hPa 0,0 l/m 4,0 km/h (1 Bft) 0 min 3,5 km/h (1 Bft)
30.05.2010 01:04 20,9 C 15,0 C 0,0 UV-I 0,0 C 50 % 77 % 0 % 1011,1 hPa 0,0 l/m 4,0 km/h (1 Bft) 0 min 5,5 km/h (1 Bft)
30.05.2010 01:06 20,9 C 15,0 C 0,0 UV-I 0,0 C 50 % 77 % 0 % 1011,1 hPa 0,0 l/m 4,0 km/h (1 Bft) 0 min 5,1 km/h (1 Bft)
30.05.2010 01:08 20,9 C 15,0 C 0,0 UV-I 0,0 C 50 % 77 % 0 % 1011,1 hPa 0,0 l/m 4,4 km/h (1 Bft) 0 min 9,7 km/h (2 Bft)
30.05.2010 01:10 20,9 C 15,0 C 0,0 UV-I 0,0 C 50 % 77 % 0 % 1011,1 hPa 0,0 l/m 4,0 km/h (1 Bft) 0 min 13,2 km/h (3 Bft)
30.05.2010 01:12 20,9 C 15,0 C 0,0 UV-I 0,0 C 50 % 77 % 0 % 1011,2 hPa 0,0 l/m 4,8 km/h (1 Bft) 0 min 6,4 km/h (2 Bft)
30.05.2010 01:14 20,9 C 15,0 C 0,0 UV-I 0,0 C 50 % 77 % 0 % 1011,2 hPa 0,0 l/m 5,2 km/h (1 Bft) 0 min 4,2 km/h (1 Bft)
30.05.2010 01:16 20,9 C 15,0 C 0,0 UV-I 0,0 C 50 % 78 % 0 % 1011,2 hPa 0,0 l/m 5,6 km/h (1 Bft) 0 min 10,3 km/h (2 Bft)
30.05.2010 01:18 20,9 C 15,1 C 0,0 UV-I 0,0 C 50 % 79 % 0 % 1011,2 hPa 0,0 l/m 5,2 km/h (1 Bft) 0 min 7,1 km/h (2 Bft)
30.05.2010 01:20 20,9 C 14,9 C 0,0 UV-I 0,0 C 50 % 80 % 0 % 1011,2 hPa 0,0 l/m 5,2 km/h (1 Bft) 0 min 6,8 km/h (2 Bft)
30.05.2010 01:22 20,9 C 14,8 C 0,0 UV-I 0,0 C 51 % 80 % 0 % 1011,2 hPa 0,0 l/m 5,6 km/h (1 Bft) 0 min 14,5 km/h (3 Bft)
30.05.2010 01:24 20,9 C 14,7 C 0,0 UV-I 0,0 C 51 % 81 % 0 % 1011,2 hPa 0,0 l/m 6,0 km/h (2 Bft) 0 min 0,0 km/h (0 Bft)
30.05.2010 01:26 20,9 C 14,7 C 0,0 UV-I 0,0 C 51 % 82 % 0 % 1011,2 hPa 0,0 l/m 5,2 km/h (1 Bft) 0 min 6,1 km/h (2 Bft)
30.05.2010 01:28 20,9 C 14,5 C 0,0 UV-I 0,0 C 51 % 82 % 0 % 1011,2 hPa 0,1 l/m 5,6 km/h (1 Bft) 0 min 5,5 km/h (1 Bft)
30.05.2010 01:30 20,9 C 14,4 C 0,0 UV-I 0,0 C 51 % 83 % 0 % 1011,2 hPa 0,1 l/m 6,0 km/h (2 Bft) 0 min 14,8 km/h (3 Bft)
30.05.2010 01:32 20,9 C 14,3 C 0,0 UV-I 0,0 C 51 % 83 % 0 % 1010,7 hPa 0,0 l/m 5,2 km/h (1 Bft) 0 min 0,0 km/h (0 Bft)
30.05.2010 01:34 20,9 C 14,3 C 0,0 UV-I 0,0 C 51 % 83 % 0 % 1010,7 hPa 0,1 l/m 4,0 km/h (1 Bft) 0 min 3,2 km/h (1 Bft)
30.05.2010 01:36 20,9 C 14,2 C 0,0 UV-I 0,0 C 51 % 84 % 0 % 1010,7 hPa 0,0 l/m 4,8 km/h (1 Bft) 0 min 5,5 km/h (1 Bft)
30.05.2010 01:38 20,9 C 14,1 C 0,0 UV-I 0,0 C 51 % 84 % 0 % 1010,7 hPa 0,0 l/m 4,4 km/h (1 Bft) 0 min 0,0 km/h (0 Bft)
30.05.2010 01:40 20,8 C 14,0 C 0,0 UV-I 0,0 C 51 % 84 % 0 % 1010,7 hPa 0,0 l/m 3,6 km/h (1 Bft) 0 min 6,4 km/h (2 Bft)
30.05.2010 01:42 20,8 C 14,0 C 0,0 UV-I 0,0 C 51 % 84 % 0 % 1010,7 hPa 0,0 l/m 3,2 km/h (1 Bft) 0 min 7,4 km/h (2 Bft)
30.05.2010 01:44 20,8 C 14,1 C 0,0 UV-I 0,0 C 51 % 85 % 0 % 1010,7 hPa 0,0 l/m 4,0 km/h (1 Bft) 0 min 6,4 km/h (2 Bft)
30.05.2010 01:46 20,8 C 14,0 C 0,0 UV-I 0,0 C 51 % 85 % 0 % 1010,7 hPa 0,0 l/m 4,0 km/h (1 Bft) 0 min 6,1 km/h (2 Bft)
30.05.2010 01:48 20,8 C 13,9 C 0,0 UV-I 0,0 C 51 % 85 % 0 % 1010,7 hPa 0,0 l/m 4,0 km/h (1 Bft) 0 min 7,7 km/h (2 Bft)
30.05.2010 01:50 20,8 C 13,9 C 0,0 UV-I 0,0 C 52 % 85 % 0 % 1010,7 hPa 0,0 l/m 3,6 km/h (1 Bft) 0 min 0,0 km/h (0 Bft)
30.05.2010 01:52 20,8 C 13,9 C 0,0 UV-I 0,0 C 52 % 85 % 0 % 1010,1 hPa 0,0 l/m 3,2 km/h (1 Bft) 0 min 4,2 km/h (1 Bft)
30.05.2010 01:54 20,8 C 13,9 C 0,0 UV-I 0,0 C 52 % 86 % 0 % 1010,1 hPa 0,0 l/m 3,2 km/h (1 Bft) 0 min 5,8 km/h (2 Bft)
30.05.2010 01:56 20,8 C 13,9 C 0,0 UV-I 0,0 C 52 % 86 % 0 % 1010,1 hPa 0,0 l/m 3,2 km/h (1 Bft) 0 min 3,5 km/h (1 Bft)
30.05.2010 01:58 20,8 C 13,9 C 0,0 UV-I 0,0 C 52 % 86 % 0 % 1010,1 hPa 0,0 l/m 2,4 km/h (1 Bft) 0 min 0,0 km/h (0 Bft)
30.05.2010 02:00 20,8 C 13,9 C 0,0 UV-I 0,0 C 52 % 86 % 0 % 1010,1 hPa 0,0 l/m 2,4 km/h (1 Bft) 0 min 3,2 km/h (1 Bft)
30.05.2010 02:02 20,8 C 13,9 C 0,0 UV-I 0,0 C 52 % 86 % 0 % 1010,1 hPa 0,0 l/m 2,4 km/h (1 Bft) 0 min 0,0 km/h (0 Bft)
30.05.2010 02:04 20,8 C 13,8 C 0,0 UV-I 0,0 C 52 % 86 % 0 % 1010,1 hPa 0,0 l/m 3,2 km/h (1 Bft) 0 min 11,9 km/h (2 Bft)
30.05.2010 02:06 20,8 C 13,8 C 0,0 UV-I 0,0 C 52 % 86 % 0 % 1010,1 hPa 0,0 l/m 3,2 km/h (1 Bft) 0 min 4,2 km/h (1 Bft)
30.05.2010 02:08 20,8 C 13,8 C 0,0 UV-I 0,0 C 52 % 86 % 0 % 1010,1 hPa 0,0 l/m 3,6 km/h (1 Bft) 0 min 9,0 km/h (2 Bft)
30.05.2010 02:10 20,8 C 13,8 C 0,0 UV-I 0,0 C 52 % 86 % 0 % 1010,1 hPa 0,0 l/m 4,0 km/h (1 Bft) 0 min 3,2 km/h (1 Bft)
30.05.2010 02:12 20,7 C 13,8 C 0,0 UV-I 0,0 C 52 % 86 % 0 % 1009,9 hPa 0,0 l/m 4,4 km/h (1 Bft) 0 min 3,5 km/h (1 Bft)
30.05.2010 02:14 20,8 C 13,8 C 0,0 UV-I 0,0 C 52 % 86 % 0 % 1009,9 hPa 0,0 l/m 4,0 km/h (1 Bft) 0 min 0,0 km/h (0 Bft)
30.05.2010 02:16 20,8 C 13,8 C 0,0 UV-I 0,0 C 52 % 86 % 0 % 1009,9 hPa 0,0 l/m 3,6 km/h (1 Bft) 0 min 0,0 km/h (0 Bft)
30.05.2010 02:18 20,7 C 13,8 C 0,0 UV-I 0,0 C 52 % 86 % 0 % 1009,9 hPa 0,0 l/m 2,8 km/h (1 Bft) 0 min 0,0 km/h (0 Bft)
30.05.2010 02:20 20,7 C 13,8 C 0,0 UV-I 0,0 C 52 % 86 % 0 % 1009,9 hPa 0,0 l/m 2,4 km/h (1 Bft) 0 min 4,2 km/h (1 Bft)
30.05.2010 02:22 20,7 C 13,8 C 0,0 UV-I 0,0 C 52 % 86 % 0 % 1009,9 hPa 0,0 l/m 2,4 km/h (1 Bft) 0 min 3,9 km/h (1 Bft)
30.05.2010 02:24 20,7 C 13,8 C 0,0 UV-I 0,0 C 53 % 87 % 0 % 1009,9 hPa 0,0 l/m 1,6 km/h (1 Bft) 0 min 3,2 km/h (1 Bft)
30.05.2010 02:26 20,7 C 13,9 C 0,0 UV-I 0,0 C 53 % 87 % 0 % 1009,9 hPa 0,0 l/m 1,6 km/h (1 Bft) 0 min 0,0 km/h (0 Bft)
30.05.2010 02:28 20,7 C 13,9 C 0,0 UV-I 0,0 C 53 % 87 % 0 % 1009,9 hPa 0,0 l/m 2,0 km/h (1 Bft) 0 min 0,0 km/h (0 Bft)
30.05.2010 02:30 20,7 C 13,9 C 0,0 UV-I 0,0 C 53 % 86 % 0 % 1009,9 hPa 0,0 l/m 2,4 km/h (1 Bft) 0 min 0,0 km/h (0 Bft)
30.05.2010 02:32 20,7 C 13,9 C 0,0 UV-I 0,0 C 53 % 87 % 0 % 1009,6 hPa 0,0 l/m 2,4 km/h (1 Bft) 0 min 6,1 km/h (2 Bft)
30.05.2010 02:34 20,6 C 13,9 C 0,0 UV-I 0,0 C 53 % 87 % 0 % 1009,6 hPa 0,0 l/m 2,8 km/h (1 Bft) 0 min 4,5 km/h (1 Bft)
30.05.2010 02:36 20,6 C 13,9 C 0,0 UV-I 0,0 C 53 % 87 % 0 % 1009,6 hPa 0,0 l/m 2,8 km/h (1 Bft) 0 min 3,5 km/h (1 Bft)
30.05.2010 02:38 20,6 C 13,9 C 0,0 UV-I 0,0 C 53 % 87 % 0 % 1009,6 hPa 0,0 l/m 2,8 km/h (1 Bft) 0 min 4,8 km/h (1 Bft)
30.05.2010 02:40 20,6 C 13,9 C 0,0 UV-I 0,0 C 53 % 87 % 0 % 1009,6 hPa 0,0 l/m 3,2 km/h (1 Bft) 0 min 4,5 km/h (1 Bft)
30.05.2010 02:42 20,6 C 13,9 C 0,0 UV-I 0,0 C 53 % 87 % 0 % 1009,6 hPa 0,0 l/m 3,2 km/h (1 Bft) 0 min 9,0 km/h (2 Bft)
30.05.2010 02:44 20,7 C 13,9 C 0,0 UV-I 0,0 C 53 % 87 % 0 % 1009,6 hPa 0,0 l/m 3,2 km/h (1 Bft) 0 min 3,9 km/h (1 Bft)
30.05.2010 02:46 20,6 C 14,0 C 0,0 UV-I 0,0 C 53 % 87 % 0 % 1009,6 hPa 0,0 l/m 3,6 km/h (1 Bft) 0 min 5,5 km/h (1 Bft)
30.05.2010 02:48 20,6 C 14,0 C 0,0 UV-I 0,0 C 53 % 87 % 0 % 1009,6 hPa 0,0 l/m 3,2 km/h (1 Bft) 0 min 6,1 km/h (2 Bft)
30.05.2010 02:50 20,6 C 13,9 C 0,0 UV-I 0,0 C 53 % 87 % 0 % 1009,6 hPa 0,0 l/m 3,6 km/h (1 Bft) 0 min 3,5 km/h (1 Bft)
30.05.2010 02:52 20,6 C 13,9 C 0,0 UV-I 0,0 C 53 % 87 % 0 % 1009,5 hPa 0,0 l/m 3,6 km/h (1 Bft) 0 min 6,8 km/h (2 Bft)
30.05.2010 02:54 20,6 C 14,0 C 0,0 UV-I 0,0 C 53 % 87 % 0 % 1009,5 hPa 0,2 l/m 3,2 km/h (1 Bft) 0 min 0,0 km/h (0 Bft)
30.05.2010 02:56 20,6 C 14,0 C 0,0 UV-I 0,0 C 53 % 87 % 0 % 1009,5 hPa 0,0 l/m 3,2 km/h (1 Bft) 0 min 4,5 km/h (1 Bft)
30.05.2010 02:58 20,6 C 13,9 C 0,0 UV-I 0,0 C 53 % 87 % 0 % 1009,5 hPa 0,0 l/m 3,2 km/h (1 Bft) 0 min 6,1 km/h (2 Bft)
30.05.2010 03:00 20,6 C 13,9 C 0,0 UV-I 0,0 C 53 % 87 % 0 % 1009,5 hPa 0,1 l/m 3,2 km/h (1 Bft) 0 min 3,5 km/h (1 Bft)
30.05.2010 03:04 20,6 C 13,9 C 0,0 UV-I 0,0 C 53 % 88 % 0 % 1009,5 hPa 0,0 l/m 3,6 km/h (1 Bft) 0 min 9,0 km/h (2 Bft)
30.05.2010 03:06 20,6 C 13,8 C 0,0 UV-I 0,0 C 54 % 88 % 0 % 1009,5 hPa 0,0 l/m 4,4 km/h (1 Bft) 0 min 0,0 km/h (0 Bft)
30.05.2010 03:08 20,6 C 13,8 C 0,0 UV-I 0,0 C 54 % 88 % 0 % 1009,5 hPa 0,1 l/m 4,4 km/h (1 Bft) 0 min 0,0 km/h (0 Bft)
30.05.2010 03:10 20,6 C 13,9 C 0,0 UV-I 0,0 C 54 % 88 % 0 % 1009,5 hPa 0,0 l/m 3,6 km/h (1 Bft) 0 min 0,0 km/h (0 Bft)
30.05.2010 03:12 20,6 C 13,9 C 0,0 UV-I 0,0 C 54 % 88 % 0 % 1009,2 hPa 0,0 l/m 2,8 km/h (1 Bft) 0 min 0,0 km/h (0 Bft)
30.05.2010 03:14 20,5 C 13,9 C 0,0 UV-I 0,0 C 54 % 89 % 0 % 1009,2 hPa 0,1 l/m 2,4 km/h (1 Bft) 0 min 0,0 km/h (0 Bft)
30.05.2010 03:16 20,5 C 13,9 C 0,0 UV-I 0,0 C 54 % 89 % 0 % 1009,2 hPa 0,0 l/m 2,0 km/h (1 Bft) 0 min 8,0 km/h (2 Bft)
30.05.2010 03:18 20,5 C 13,8 C 0,0 UV-I 0,0 C 54 % 89 % 0 % 1009,2 hPa 0,2 l/m 2,4 km/h (1 Bft) 0 min 4,8 km/h (1 Bft)
30.05.2010 03:20 20,5 C 13,7 C 0,0 UV-I 0,0 C 54 % 89 % 0 % 1009,2 hPa 0,1 l/m 3,2 km/h (1 Bft) 0 min 7,4 km/h (2 Bft)
30.05.2010 03:22 20,5 C 13,7 C 0,0 UV-I 0,0 C 54 % 89 % 0 % 1009,2 hPa 0,0 l/m 3,6 km/h (1 Bft) 0 min 5,8 km/h (2 Bft)
30.05.2010 03:24 20,5 C 13,7 C 0,0 UV-I 0,0 C 54 % 89 % 0 % 1009,2 hPa 0,1 l/m 4,0 km/h (1 Bft) 0 min 3,9 km/h (1 Bft)
30.05.2010 03:26 20,5 C 13,7 C 0,0 UV-I 0,0 C 54 % 89 % 0 % 1009,2 hPa 0,1 l/m 4,8 km/h (1 Bft) 0 min 6,1 km/h (2 Bft)
30.05.2010 03:28 20,5 C 13,6 C 0,0 UV-I 0,0 C 54 % 89 % 0 % 1009,2 hPa 0,0 l/m 4,4 km/h (1 Bft) 0 min 3,9 km/h (1 Bft)
30.05.2010 03:30 20,5 C 13,6 C 0,0 UV-I 0,0 C 54 % 89 % 0 % 1009,2 hPa 0,1 l/m 4,8 km/h (1 Bft) 0 min 8,0 km/h (2 Bft)
30.05.2010 03:32 20,5 C 13,7 C 0,0 UV-I 0,0 C 54 % 89 % 0 % 1009,1 hPa 0,1 l/m 5,6 km/h (1 Bft) 0 min 8,4 km/h (2 Bft)
30.05.2010 03:34 20,5 C 13,7 C 0,0 UV-I 0,0 C 54 % 90 % 0 % 1009,1 hPa 0,0 l/m 4,8 km/h (1 Bft) 0 min 3,5 km/h (1 Bft)
30.05.2010 03:36 20,5 C 13,6 C 0,0 UV-I 0,0 C 55 % 90 % 0 % 1009,1 hPa 0,0 l/m 4,8 km/h (1 Bft) 0 min 6,8 km/h (2 Bft)
30.05.2010 03:38 20,5 C 13,6 C 0,0 UV-I 0,0 C 54 % 90 % 0 % 1009,1 hPa 0,0 l/m 4,4 km/h (1 Bft) 0 min 6,1 km/h (2 Bft)
30.05.2010 03:40 20,5 C 13,6 C 0,0 UV-I 0,0 C 54 % 90 % 0 % 1009,1 hPa 0,0 l/m 3,6 km/h (1 Bft) 0 min 4,8 km/h (1 Bft)
30.05.2010 03:42 20,5 C 13,5 C 0,0 UV-I 0,0 C 54 % 90 % 0 % 1009,1 hPa 0,1 l/m 2,8 km/h (1 Bft) 0 min 8,4 km/h (2 Bft)
30.05.2010 03:44 20,5 C 13,5 C 0,0 UV-I 0,0 C 54 % 90 % 0 % 1009,1 hPa 0,0 l/m 2,8 km/h (1 Bft) 0 min 0,0 km/h (0 Bft)
30.05.2010 03:46 20,4 C 13,5 C 0,0 UV-I 0,0 C 54 % 90 % 0 % 1009,1 hPa 0,0 l/m 4,0 km/h (1 Bft) 0 min 5,1 km/h (1 Bft)
30.05.2010 03:48 20,4 C 13,5 C 0,0 UV-I 0,0 C 54 % 90 % 0 % 1009,1 hPa 0,0 l/m 4,4 km/h (1 Bft) 0 min 10,0 km/h (2 Bft)
30.05.2010 03:50 20,4 C 13,5 C 0,0 UV-I 0,0 C 54 % 91 % 0 % 1009,1 hPa 0,0 l/m 4,4 km/h (1 Bft) 0 min 4,5 km/h (1 Bft)
30.05.2010 03:52 20,4 C 13,5 C 0,0 UV-I 0,0 C 55 % 91 % 0 % 1008,5 hPa 0,0 l/m 4,8 km/h (1 Bft) 0 min 3,2 km/h (1 Bft)
30.05.2010 03:54 20,4 C 13,5 C 0,0 UV-I 0,0 C 55 % 91 % 0 % 1008,5 hPa 0,0 l/m 4,8 km/h (1 Bft) 0 min 10,3 km/h (2 Bft)
30.05.2010 03:58 20,4 C 13,5 C 0,0 UV-I 0,0 C 55 % 91 % 0 % 1008,5 hPa 0,0 l/m 4,8 km/h (1 Bft) 0 min 4,8 km/h (1 Bft)
30.05.2010 04:00 20,4 C 13,5 C 0,0 UV-I 0,0 C 55 % 91 % 0 % 1008,5 hPa 0,0 l/m 4,4 km/h (1 Bft) 0 min 6,8 km/h (2 Bft)
30.05.2010 04:02 20,4 C 13,5 C 0,0 UV-I 0,0 C 55 % 91 % 0 % 1008,5 hPa 0,0 l/m 4,4 km/h (1 Bft) 0 min 3,2 km/h (1 Bft)
30.05.2010 04:04 20,4 C 13,5 C 0,0 UV-I 0,0 C 55 % 91 % 0 % 1008,5 hPa 0,0 l/m 4,4 km/h (1 Bft) 0 min 5,5 km/h (1 Bft)
30.05.2010 04:06 20,4 C 13,5 C 0,0 UV-I 0,0 C 55 % 91 % 0 % 1008,5 hPa 0,0 l/m 4,0 km/h (1 Bft) 0 min 6,1 km/h (2 Bft)
30.05.2010 04:08 20,4 C 13,5 C 0,0 UV-I 0,0 C 55 % 91 % 0 % 1008,5 hPa 0,0 l/m 4,0 km/h (1 Bft) 0 min 0,0 km/h (0 Bft)
30.05.2010 04:10 20,4 C 13,5 C 0,0 UV-I 0,0 C 55 % 91 % 0 % 1008,5 hPa 0,0 l/m 3,2 km/h (1 Bft) 0 min 0,0 km/h (0 Bft)
30.05.2010 04:13 20,4 C 13,4 C 0,0 UV-I 0,0 C 55 % 91 % 0 % 1008,5 hPa 0,0 l/m 2,8 km/h (1 Bft) 0 min 8,0 km/h (2 Bft)
30.05.2010 04:18 20,2 C 13,5 C 0,0 UV-I 0,0 C 55 % 91 % 0 % 1008,5 hPa 0,0 l/m 2,4 km/h (1 Bft) 0 min 9,7 km/h (2 Bft)
30.05.2010 04:19 20,2 C 13,5 C 0,0 UV-I 0,0 C 55 % 91 % 0 % 1008,5 hPa 0,0 l/m 2,4 km/h (1 Bft) 0 min 9,7 km/h (2 Bft)
30.05.2010 04:20 20,2 C 13,5 C 0,0 UV-I 0,0 C 55 % 91 % 0 % 1008,5 hPa 0,0 l/m 2,4 km/h (1 Bft) 0 min 9,7 km/h (2 Bft)
30.05.2010 04:22 20,2 C 13,5 C 0,0 UV-I 0,0 C 55 % 91 % 0 % 1008,5 hPa 0,0 l/m 3,2 km/h (1 Bft) 0 min 6,1 km/h (2 Bft)
30.05.2010 04:24 20,2 C 13,5 C 0,0 UV-I 0,0 C 55 % 91 % 0 % 1008,5 hPa 0,0 l/m 4,8 km/h (1 Bft) 0 min 6,8 km/h (2 Bft)
30.05.2010 04:26 20,2 C 13,5 C 0,0 UV-I 0,0 C 55 % 91 % 0 % 1008,5 hPa 0,0 l/m 5,2 km/h (1 Bft) 0 min 5,8 km/h (2 Bft)
30.05.2010 04:28 20,2 C 13,5 C 0,0 UV-I 0,0 C 55 % 91 % 0 % 1008,5 hPa 0,0 l/m 5,2 km/h (1 Bft) 0 min 3,9 km/h (1 Bft)
30.05.2010 04:30 20,2 C 13,5 C 0,0 UV-I 0,0 C 55 % 91 % 0 % 1008,5 hPa 0,0 l/m 5,2 km/h (1 Bft) 0 min 4,2 km/h (1 Bft)
30.05.2010 04:32 20,3 C 13,5 C 0,0 UV-I 0,0 C 56 % 91 % 0 % 1008,1 hPa 0,0 l/m 4,8 km/h (1 Bft) 0 min 6,1 km/h (2 Bft)
30.05.2010 04:34 20,3 C 13,5 C 0,0 UV-I 0,0 C 56 % 91 % 0 % 1008,1 hPa 0,0 l/m 4,4 km/h (1 Bft) 0 min 4,5 km/h (1 Bft)
30.05.2010 04:36 20,2 C 13,5 C 0,0 UV-I 0,0 C 56 % 91 % 0 % 1008,1 hPa 0,0 l/m 4,0 km/h (1 Bft) 0 min 9,0 km/h (2 Bft)
30.05.2010 04:38 20,3 C 13,5 C 0,0 UV-I 0,0 C 56 % 91 % 0 % 1008,1 hPa 0,0 l/m 4,8 km/h (1 Bft) 0 min 6,4 km/h (2 Bft)
30.05.2010 04:40 20,3 C 13,5 C 0,0 UV-I 0,0 C 56 % 91 % 0 % 1008,1 hPa 0,0 l/m 4,4 km/h (1 Bft) 0 min 3,5 km/h (1 Bft)
30.05.2010 04:42 20,3 C 13,5 C 0,0 UV-I 0,0 C 56 % 91 % 0 % 1008,1 hPa 0,0 l/m 3,6 km/h (1 Bft) 0 min 0,0 km/h (0 Bft)
30.05.2010 04:44 20,3 C 13,5 C 0,0 UV-I 0,0 C 56 % 91 % 0 % 1008,1 hPa 0,0 l/m 3,6 km/h (1 Bft) 0 min 6,1 km/h (2 Bft)
30.05.2010 04:46 20,3 C 13,4 C 0,0 UV-I 0,0 C 56 % 91 % 0 % 1008,1 hPa 0,0 l/m 4,0 km/h (1 Bft) 0 min 5,1 km/h (1 Bft)
30.05.2010 04:48 20,3 C 13,5 C 0,0 UV-I 0,0 C 56 % 91 % 0 % 1008,1 hPa 0,0 l/m 3,2 km/h (1 Bft) 0 min 5,1 km/h (1 Bft)
30.05.2010 04:50 20,3 C 13,5 C 0,0 UV-I 0,0 C 56 % 91 % 0 % 1008,1 hPa 0,0 l/m 2,8 km/h (1 Bft) 0 min 0,0 km/h (0 Bft)
30.05.2010 04:52 20,2 C 13,4 C 0,0 UV-I 0,0 C 56 % 91 % 0 % 1007,9 hPa 0,0 l/m 2,4 km/h (1 Bft) 0 min 0,0 km/h (0 Bft)
30.05.2010 04:54 20,2 C 13,5 C 0,0 UV-I 0,0 C 56 % 91 % 0 % 1007,9 hPa 0,0 l/m 2,4 km/h (1 Bft) 0 min 3,9 km/h (1 Bft)
30.05.2010 04:56 20,2 C 13,5 C 0,0 UV-I 0,0 C 56 % 91 % 0 % 1007,9 hPa 0,0 l/m 1,6 km/h (1 Bft) 0 min 0,0 km/h (0 Bft)
30.05.2010 04:58 20,2 C 13,5 C 0,0 UV-I 0,0 C 56 % 91 % 0 % 1007,9 hPa 0,0 l/m 2,4 km/h (1 Bft) 0 min 5,1 km/h (1 Bft)
30.05.2010 05:00 20,2 C 13,5 C 0,0 UV-I 0,0 C 56 % 91 % 0 % 1007,9 hPa 0,0 l/m 2,4 km/h (1 Bft) 0 min 5,8 km/h (2 Bft)
30.05.2010 05:02 20,2 C 13,5 C 0,0 UV-I 0,0 C 56 % 92 % 0 % 1007,9 hPa 0,0 l/m 3,2 km/h (1 Bft) 0 min 7,1 km/h (2 Bft)
30.05.2010 05:04 20,2 C 13,5 C 0,0 UV-I 0,0 C 56 % 92 % 0 % 1007,9 hPa 0,0 l/m 3,6 km/h (1 Bft) 0 min 0,0 km/h (0 Bft)
30.05.2010 05:06 20,2 C 13,5 C 0,0 UV-I 0,0 C 56 % 91 % 0 % 1007,9 hPa 0,0 l/m 3,2 km/h (1 Bft) 0 min 0,0 km/h (0 Bft)
30.05.2010 05:08 20,2 C 13,5 C 0,0 UV-I 0,0 C 56 % 92 % 0 % 1007,9 hPa 0,0 l/m 2,8 km/h (1 Bft) 0 min 3,2 km/h (1 Bft)
30.05.2010 05:10 20,2 C 13,5 C 0,0 UV-I 0,0 C 56 % 92 % 0 % 1007,9 hPa 0,0 l/m 2,0 km/h (1 Bft) 0 min 0,0 km/h (0 Bft)
30.05.2010 05:12 20,2 C 13,5 C 0,0 UV-I 0,0 C 56 % 92 % 0 % 1007,6 hPa 0,0 l/m 2,0 km/h (1 Bft) 0 min 3,5 km/h (1 Bft)
30.05.2010 05:14 20,2 C 13,5 C 0,0 UV-I 0,0 C 56 % 92 % 0 % 1007,6 hPa 0,0 l/m 1,6 km/h (1 Bft) 0 min 4,2 km/h (1 Bft)
30.05.2010 05:16 20,2 C 13,5 C 0,0 UV-I 0,0 C 56 % 92 % 0 % 1007,6 hPa 0,0 l/m 2,4 km/h (1 Bft) 0 min 4,8 km/h (1 Bft)
30.05.2010 05:18 20,2 C 13,5 C 0,0 UV-I 0,0 C 56 % 92 % 0 % 1007,6 hPa 0,0 l/m 2,4 km/h (1 Bft) 0 min 10,3 km/h (2 Bft)
30.05.2010 05:20 20,2 C 13,4 C 0,0 UV-I 0,0 C 56 % 92 % 0 % 1007,6 hPa 0,0 l/m 2,4 km/h (1 Bft) 0 min 0,0 km/h (0 Bft)
30.05.2010 05:22 20,2 C 13,4 C 0,0 UV-I 0,0 C 56 % 92 % 0 % 1007,6 hPa 0,0 l/m 2,4 km/h (1 Bft) 0 min 3,5 km/h (1 Bft)
30.05.2010 05:24 20,2 C 13,5 C 0,0 UV-I 0,0 C 56 % 92 % 0 % 1007,6 hPa 0,0 l/m 2,4 km/h (1 Bft) 0 min 5,1 km/h (1 Bft)
30.05.2010 05:26 20,2 C 13,5 C 0,0 UV-I 0,0 C 56 % 92 % 0 % 1007,6 hPa 0,0 l/m 2,4 km/h (1 Bft) 0 min 4,2 km/h (1 Bft)
30.05.2010 05:28 20,2 C 13,4 C 0,0 UV-I 0,0 C 56 % 92 % 0 % 1007,6 hPa 0,0 l/m 2,0 km/h (1 Bft) 0 min 3,9 km/h (1 Bft)
30.05.2010 05:30 20,1 C 13,4 C 0,0 UV-I 0,0 C 56 % 92 % 0 % 1007,6 hPa 0,0 l/m 2,0 km/h (1 Bft) 0 min 0,0 km/h (0 Bft)
30.05.2010 05:32 20,1 C 13,3 C 0,0 UV-I 0,0 C 56 % 92 % 0 % 1007,8 hPa 0,0 l/m 2,8 km/h (1 Bft) 0 min 6,8 km/h (2 Bft)
30.05.2010 05:34 20,1 C 13,4 C 0,0 UV-I 0,0 C 56 % 92 % 0 % 1007,8 hPa 0,0 l/m 2,8 km/h (1 Bft) 0 min 7,1 km/h (2 Bft)
30.05.2010 05:36 20,1 C 13,4 C 0,0 UV-I 0,0 C 56 % 92 % 0 % 1007,8 hPa 0,0 l/m 3,2 km/h (1 Bft) 0 min 5,1 km/h (1 Bft)
30.05.2010 05:38 20,1 C 13,4 C 0,0 UV-I 0,0 C 56 % 92 % 0 % 1007,8 hPa 0,0 l/m 3,2 km/h (1 Bft) 0 min 0,0 km/h (0 Bft)
30.05.2010 05:40 20,1 C 13,4 C 0,0 UV-I 0,0 C 56 % 92 % 0 % 1007,8 hPa 0,0 l/m 2,8 km/h (1 Bft) 0 min 6,4 km/h (2 Bft)
30.05.2010 05:42 20,1 C 13,5 C 0,0 UV-I 0,0 C 56 % 92 % 0 % 1007,8 hPa 0,0 l/m 2,4 km/h (1 Bft) 0 min 4,5 km/h (1 Bft)
30.05.2010 05:44 20,1 C 13,5 C 0,0 UV-I 0,0 C 56 % 92 % 0 % 1007,8 hPa 0,0 l/m 2,8 km/h (1 Bft) 0 min 4,8 km/h (1 Bft)
30.05.2010 05:46 20,1 C 13,4 C 0,0 UV-I 0,0 C 56 % 92 % 0 % 1007,8 hPa 0,0 l/m 2,4 km/h (1 Bft) 0 min 4,2 km/h (1 Bft)
30.05.2010 05:48 20,1 C 13,5 C 0,0 UV-I 0,0 C 56 % 92 % 0 % 1007,8 hPa 0,0 l/m 2,8 km/h (1 Bft) 0 min 0,0 km/h (0 Bft)
30.05.2010 05:50 20,1 C 13,4 C 0,0 UV-I 0,0 C 56 % 92 % 0 % 1007,8 hPa 0,0 l/m 2,8 km/h (1 Bft) 0 min 0,0 km/h (0 Bft)
30.05.2010 05:52 20,1 C 13,5 C 0,0 UV-I 0,0 C 56 % 92 % 0 % 1007,7 hPa 0,0 l/m 2,8 km/h (1 Bft) 0 min 0,0 km/h (0 Bft)
30.05.2010 05:54 20,1 C 13,5 C 0,0 UV-I 0,0 C 57 % 92 % 0 % 1007,7 hPa 0,0 l/m 3,2 km/h (1 Bft) 0 min 3,9 km/h (1 Bft)
30.05.2010 05:56 20,1 C 13,5 C 0,0 UV-I 0,0 C 57 % 92 % 0 % 1007,7 hPa 0,0 l/m 2,8 km/h (1 Bft) 0 min 0,0 km/h (0 Bft)
30.05.2010 05:58 20,1 C 13,5 C 0,0 UV-I 0,0 C 57 % 92 % 0 % 1007,7 hPa 0,0 l/m 2,8 km/h (1 Bft) 0 min 11,6 km/h (2 Bft)
30.05.2010 06:00 20,1 C 13,5 C 0,0 UV-I 0,0 C 57 % 92 % 0 % 1007,7 hPa 0,0 l/m 3,2 km/h (1 Bft) 0 min 3,5 km/h (1 Bft)
30.05.2010 06:02 20,1 C 13,5 C 0,0 UV-I 0,0 C 57 % 92 % 0 % 1007,7 hPa 0,0 l/m 3,2 km/h (1 Bft) 0 min 3,2 km/h (1 Bft)
30.05.2010 06:04 20,1 C 13,4 C 0,0 UV-I 0,0 C 57 % 92 % 0 % 1007,7 hPa 0,0 l/m 2,8 km/h (1 Bft) 0 min 0,0 km/h (0 Bft)
30.05.2010 06:06 20,1 C 13,5 C 0,0 UV-I 0,0 C 57 % 92 % 0 % 1007,7 hPa 0,0 l/m 1,6 km/h (1 Bft) 0 min 0,0 km/h (0 Bft)
30.05.2010 06:08 20,1 C 13,5 C 0,0 UV-I 0,0 C 57 % 92 % 0 % 1007,7 hPa 0,0 l/m 2,0 km/h (1 Bft) 0 min 3,2 km/h (1 Bft)
30.05.2010 06:10 20,1 C 13,5 C 0,0 UV-I 0,0 C 57 % 92 % 0 % 1007,7 hPa 0,0 l/m 1,2 km/h (1 Bft) 0 min 3,9 km/h (1 Bft)
30.05.2010 06:12 20,1 C 13,5 C 0,0 UV-I 0,0 C 57 % 91 % 0 % 1007,5 hPa 0,0 l/m 1,2 km/h (1 Bft) 0 min 3,5 km/h (1 Bft)
30.05.2010 06:14 20,1 C 13,4 C 0,0 UV-I 0,0 C 57 % 91 % 0 % 1007,5 hPa 0,0 l/m 1,2 km/h (1 Bft) 0 min 0,0 km/h (0 Bft)
30.05.2010 06:16 20,1 C 13,3 C 0,0 UV-I 0,0 C 57 % 91 % 0 % 1007,5 hPa 0,0 l/m 2,0 km/h (1 Bft) 0 min 3,5 km/h (1 Bft)
30.05.2010 06:18 20,1 C 13,4 C 0,0 UV-I 0,0 C 57 % 91 % 0 % 1007,5 hPa 0,0 l/m 2,0 km/h (1 Bft) 0 min 0,0 km/h (0 Bft)
30.05.2010 06:20 20,1 C 13,5 C 0,0 UV-I 0,0 C 57 % 91 % 0 % 1007,5 hPa 0,0 l/m 2,0 km/h (1 Bft) 0 min 3,9 km/h (1 Bft)
30.05.2010 06:22 20,0 C 13,4 C 0,0 UV-I 0,0 C 57 % 91 % 0 % 1007,5 hPa 0,0 l/m 2,4 km/h (1 Bft) 0 min 0,0 km/h (0 Bft)
30.05.2010 06:24 20,1 C 13,5 C 0,0 UV-I 0,0 C 57 % 91 % 0 % 1007,5 hPa 0,0 l/m 2,4 km/h (1 Bft) 0 min 0,0 km/h (0 Bft)
30.05.2010 06:26 20,1 C 13,4 C 0,0 UV-I 0,0 C 57 % 91 % 0 % 1007,5 hPa 0,0 l/m 2,0 km/h (1 Bft) 0 min 3,2 km/h (1 Bft)
30.05.2010 06:28 20,1 C 13,4 C 0,0 UV-I 0,0 C 57 % 91 % 0 % 1007,5 hPa 0,0 l/m 2,4 km/h (1 Bft) 0 min 9,3 km/h (2 Bft)
30.05.2010 06:30 20,0 C 13,4 C 0,0 UV-I 0,0 C 57 % 91 % 0 % 1007,5 hPa 0,0 l/m 2,4 km/h (1 Bft) 0 min 3,2 km/h (1 Bft)
30.05.2010 06:32 20,1 C 13,5 C 0,0 UV-I 0,0 C 57 % 91 % 0 % 1007,4 hPa 0,0 l/m 2,0 km/h (1 Bft) 0 min 3,9 km/h (1 Bft)
30.05.2010 06:34 20,0 C 13,5 C 0,0 UV-I 0,0 C 57 % 91 % 0 % 1007,4 hPa 0,0 l/m 2,0 km/h (1 Bft) 0 min 3,9 km/h (1 Bft)
30.05.2010 06:36 20,0 C 13,5 C 0,0 UV-I 0,0 C 57 % 91 % 0 % 1007,4 hPa 0,0 l/m 2,4 km/h (1 Bft) 0 min 6,1 km/h (2 Bft)
30.05.2010 06:38 20,0 C 13,4 C 0,0 UV-I 0,0 C 57 % 91 % 0 % 1007,4 hPa 0,0 l/m 2,4 km/h (1 Bft) 0 min 4,2 km/h (1 Bft)
30.05.2010 06:40 20,0 C 13,4 C 0,0 UV-I 0,0 C 57 % 91 % 0 % 1007,4 hPa 0,0 l/m 2,0 km/h (1 Bft) 0 min 0,0 km/h (0 Bft)
30.05.2010 06:42 20,1 C 13,5 C 0,0 UV-I 0,0 C 57 % 91 % 0 % 1007,4 hPa 0,0 l/m 2,8 km/h (1 Bft) 0 min 0,0 km/h (0 Bft)
30.05.2010 06:44 20,0 C 13,5 C 0,0 UV-I 0,0 C 57 % 91 % 0 % 1007,4 hPa 0,0 l/m 2,8 km/h (1 Bft) 0 min 8,0 km/h (2 Bft)
30.05.2010 06:46 20,0 C 13,5 C 0,0 UV-I 0,0 C 57 % 91 % 0 % 1007,4 hPa 0,0 l/m 3,6 km/h (1 Bft) 0 min 5,1 km/h (1 Bft)
30.05.2010 06:48 20,1 C 13,5 C 0,0 UV-I 0,0 C 57 % 91 % 0 % 1007,4 hPa 0,0 l/m 3,6 km/h (1 Bft) 0 min 4,5 km/h (1 Bft)
30.05.2010 06:50 20,0 C 13,5 C 0,0 UV-I 0,0 C 57 % 91 % 0 % 1007,4 hPa 0,0 l/m 3,2 km/h (1 Bft) 0 min 0,0 km/h (0 Bft)
30.05.2010 06:52 20,0 C 13,5 C 0,0 UV-I 0,0 C 57 % 91 % 0 % 1007,6 hPa 0,0 l/m 3,2 km/h (1 Bft) 0 min 0,0 km/h (0 Bft)
30.05.2010 06:54 20,0 C 13,5 C 0,0 UV-I 0,0 C 57 % 91 % 0 % 1007,6 hPa 0,0 l/m 3,6 km/h (1 Bft) 0 min 4,2 km/h (1 Bft)
30.05.2010 06:56 20,0 C 13,5 C 0,0 UV-I 0,0 C 57 % 91 % 0 % 1007,6 hPa 0,0 l/m 3,2 km/h (1 Bft) 0 min 3,5 km/h (1 Bft)
30.05.2010 06:58 20,0 C 13,5 C 0,0 UV-I 0,0 C 57 % 91 % 0 % 1007,6 hPa 0,0 l/m 3,2 km/h (1 Bft) 0 min 0,0 km/h (0 Bft)
30.05.2010 07:00 20,0 C 13,5 C 0,0 UV-I 0,0 C 57 % 91 % 0 % 1007,6 hPa 0,0 l/m 3,2 km/h (1 Bft) 0 min 5,8 km/h (2 Bft)
30.05.2010 07:02 20,0 C 13,5 C 0,0 UV-I 0,0 C 57 % 90 % 0 % 1007,6 hPa 0,0 l/m 3,2 km/h (1 Bft) 0 min 0,0 km/h (0 Bft)
30.05.2010 07:04 20,0 C 13,5 C 0,0 UV-I 0,0 C 57 % 90 % 0 % 1007,6 hPa 0,0 l/m 3,2 km/h (1 Bft) 0 min 6,1 km/h (2 Bft)
30.05.2010 07:06 20,0 C 13,6 C 0,0 UV-I 0,0 C 57 % 90 % 0 % 1007,6 hPa 0,0 l/m 3,2 km/h (1 Bft) 0 min 3,2 km/h (1 Bft)
30.05.2010 07:08 20,0 C 13,6 C 0,0 UV-I 0,0 C 57 % 90 % 0 % 1007,6 hPa 0,0 l/m 2,8 km/h (1 Bft) 0 min 4,8 km/h (1 Bft)
30.05.2010 07:10 20,0 C 13,6 C 0,0 UV-I 0,0 C 57 % 90 % 0 % 1007,6 hPa 0,0 l/m 2,8 km/h (1 Bft) 0 min 0,0 km/h (0 Bft)
30.05.2010 07:12 20,0 C 13,7 C 0,0 UV-I 0,0 C 57 % 90 % 0 % 1007,6 hPa 0,0 l/m 2,4 km/h (1 Bft) 0 min 4,8 km/h (1 Bft)
30.05.2010 07:14 20,0 C 13,6 C 0,0 UV-I 0,0 C 57 % 90 % 0 % 1007,6 hPa 0,0 l/m 2,8 km/h (1 Bft) 0 min 4,2 km/h (1 Bft)
30.05.2010 07:18 20,0 C 13,6 C 0,0 UV-I 0,0 C 57 % 90 % 0 % 1007,6 hPa 0,0 l/m 3,2 km/h (1 Bft) 0 min 10,3 km/h (2 Bft)
30.05.2010 07:20 20,0 C 13,7 C 0,0 UV-I 0,0 C 57 % 90 % 0 % 1007,6 hPa 0,0 l/m 3,2 km/h (1 Bft) 0 min 15,4 km/h (3 Bft)
30.05.2010 07:22 20,0 C 13,6 C 0,0 UV-I 0,0 C 57 % 90 % 0 % 1007,6 hPa 0,0 l/m 3,6 km/h (1 Bft) 0 min 0,0 km/h (0 Bft)
30.05.2010 07:24 20,0 C 13,6 C 0,0 UV-I 0,0 C 57 % 90 % 0 % 1007,6 hPa 0,0 l/m 4,0 km/h (1 Bft) 0 min 7,4 km/h (2 Bft)
30.05.2010 07:26 20,0 C 13,6 C 0,0 UV-I 0,0 C 57 % 90 % 0 % 1007,6 hPa 0,0 l/m 4,4 km/h (1 Bft) 0 min 3,9 km/h (1 Bft)
30.05.2010 07:28 20,0 C 13,6 C 0,0 UV-I 0,0 C 57 % 90 % 0 % 1007,6 hPa 0,0 l/m 4,4 km/h (1 Bft) 0 min 9,0 km/h (2 Bft)
30.05.2010 07:30 20,0 C 13,6 C 0,0 UV-I 0,0 C 57 % 90 % 0 % 1007,6 hPa 0,0 l/m 4,8 km/h (1 Bft) 0 min 7,1 km/h (2 Bft)
30.05.2010 07:32 20,0 C 13,6 C 0,0 UV-I 0,0 C 57 % 90 % 0 % 1007,6 hPa 0,0 l/m 4,8 km/h (1 Bft) 0 min 3,2 km/h (1 Bft)
30.05.2010 07:34 20,0 C 13,7 C 0,0 UV-I 0,0 C 57 % 90 % 0 % 1007,6 hPa 0,0 l/m 4,8 km/h (1 Bft) 0 min 12,2 km/h (2 Bft)
30.05.2010 07:36 20,0 C 13,6 C 0,0 UV-I 0,0 C 57 % 90 % 0 % 1007,6 hPa 0,0 l/m 5,6 km/h (1 Bft) 0 min 16,4 km/h (3 Bft)
30.05.2010 07:38 20,0 C 13,6 C 0,0 UV-I 0,0 C 57 % 90 % 0 % 1007,6 hPa 0,0 l/m 5,6 km/h (1 Bft) 0 min 6,8 km/h (2 Bft)
30.05.2010 07:40 20,0 C 13,6 C 0,0 UV-I 0,0 C 57 % 90 % 0 % 1007,6 hPa 0,0 l/m 5,2 km/h (1 Bft) 0 min 16,4 km/h (3 Bft)
30.05.2010 07:42 20,0 C 13,6 C 0,0 UV-I 0,0 C 57 % 90 % 0 % 1007,6 hPa 0,0 l/m 4,8 km/h (1 Bft) 0 min 3,2 km/h (1 Bft)
30.05.2010 07:44 20,0 C 13,7 C 0,0 UV-I 0,0 C 57 % 90 % 0 % 1007,6 hPa 0,0 l/m 4,8 km/h (1 Bft) 0 min 5,1 km/h (1 Bft)
30.05.2010 07:46 20,0 C 13,7 C 0,1 UV-I 0,0 C 57 % 90 % 0 % 1007,6 hPa 0,0 l/m 5,2 km/h (1 Bft) 0 min 7,7 km/h (2 Bft)
30.05.2010 07:48 20,0 C 13,6 C 0,1 UV-I 0,0 C 57 % 90 % 0 % 1007,6 hPa 0,0 l/m 4,8 km/h (1 Bft) 0 min 5,5 km/h (1 Bft)
30.05.2010 07:50 20,0 C 13,6 C 0,1 UV-I 0,0 C 57 % 90 % 0 % 1007,6 hPa 0,0 l/m 4,4 km/h (1 Bft) 0 min 5,1 km/h (1 Bft)
30.05.2010 07:52 20,0 C 13,7 C 0,0 UV-I 0,0 C 57 % 90 % 0 % 1007,5 hPa 0,0 l/m 4,0 km/h (1 Bft) 0 min 4,2 km/h (1 Bft)
30.05.2010 07:54 20,0 C 13,7 C 0,0 UV-I 0,0 C 57 % 90 % 0 % 1007,5 hPa 0,0 l/m 4,0 km/h (1 Bft) 0 min 0,0 km/h (0 Bft)
30.05.2010 07:58 20,0 C 13,7 C 0,0 UV-I 0,0 C 57 % 90 % 0 % 1007,5 hPa 0,0 l/m 2,4 km/h (1 Bft) 0 min 3,9 km/h (1 Bft)
30.05.2010 08:00 20,0 C 13,7 C 0,0 UV-I 0,0 C 57 % 90 % 0 % 1007,5 hPa 0,0 l/m 2,4 km/h (1 Bft) 0 min 4,2 km/h (1 Bft)
30.05.2010 08:02 20,0 C 13,6 C 0,2 UV-I 0,0 C 57 % 90 % 0 % 1007,5 hPa 0,0 l/m 2,0 km/h (1 Bft) 0 min 0,0 km/h (0 Bft)
30.05.2010 08:04 20,0 C 13,7 C 0,2 UV-I 0,0 C 57 % 90 % 0 % 1007,5 hPa 0,0 l/m 2,0 km/h (1 Bft) 0 min 0,0 km/h (0 Bft)
30.05.2010 08:06 20,0 C 13,6 C 0,5 UV-I 0,3 C 57 % 90 % 9 % 1007,5 hPa 0,0 l/m 2,0 km/h (1 Bft) 0 min 0,0 km/h (0 Bft)
30.05.2010 08:08 20,0 C 13,7 C 0,5 UV-I 0,2 C 57 % 90 % 6 % 1007,5 hPa 0,0 l/m 2,0 km/h (1 Bft) 0 min 5,8 km/h (2 Bft)
30.05.2010 08:10 20,0 C 13,7 C 0,5 UV-I 0,3 C 57 % 91 % 9 % 1007,5 hPa 0,1 l/m 2,0 km/h (1 Bft) 0 min 14,8 km/h (3 Bft)
30.05.2010 08:12 20,0 C 13,7 C 0,0 UV-I 0,2 C 57 % 91 % 6 % 1007,8 hPa 0,0 l/m 2,8 km/h (1 Bft) 0 min 0,0 km/h (0 Bft)
30.05.2010 08:16 20,0 C 13,6 C 0,0 UV-I 0,0 C 57 % 91 % 0 % 1007,8 hPa 0,1 l/m 3,6 km/h (1 Bft) 0 min 10,3 km/h (2 Bft)
30.05.2010 08:18 20,0 C 13,7 C 0,0 UV-I 0,0 C 57 % 91 % 0 % 1007,8 hPa 0,0 l/m 4,0 km/h (1 Bft) 0 min 4,5 km/h (1 Bft)
30.05.2010 08:20 20,0 C 13,6 C 0,0 UV-I 0,0 C 57 % 91 % 0 % 1007,8 hPa 0,0 l/m 4,4 km/h (1 Bft) 0 min 7,7 km/h (2 Bft)
30.05.2010 08:22 20,0 C 13,6 C 0,0 UV-I 0,0 C 57 % 91 % 0 % 1007,8 hPa 0,1 l/m 3,6 km/h (1 Bft) 0 min 7,7 km/h (2 Bft)
30.05.2010 08:24 20,0 C 13,5 C 0,0 UV-I 0,0 C 57 % 91 % 0 % 1007,8 hPa 0,0 l/m 4,0 km/h (1 Bft) 0 min 5,5 km/h (1 Bft)
30.05.2010 08:26 20,0 C 13,6 C 0,0 UV-I 0,0 C 57 % 91 % 0 % 1007,8 hPa 0,0 l/m 4,4 km/h (1 Bft) 0 min 7,4 km/h (2 Bft)
30.05.2010 08:28 20,0 C 13,5 C 0,0 UV-I 0,0 C 58 % 91 % 0 % 1007,8 hPa 0,0 l/m 4,0 km/h (1 Bft) 0 min 0,0 km/h (0 Bft)
30.05.2010 08:30 20,0 C 13,5 C 0,0 UV-I 0,0 C 58 % 91 % 0 % 1007,8 hPa 0,0 l/m 4,0 km/h (1 Bft) 0 min 7,7 km/h (2 Bft)
30.05.2010 08:32 20,0 C 13,5 C 0,1 UV-I 0,0 C 58 % 91 % 0 % 1008,0 hPa 0,0 l/m 3,6 km/h (1 Bft) 0 min 4,8 km/h (1 Bft)
30.05.2010 08:34 20,0 C 13,5 C 0,1 UV-I 0,0 C 58 % 91 % 0 % 1008,0 hPa 0,0 l/m 3,2 km/h (1 Bft) 0 min 6,4 km/h (2 Bft)
30.05.2010 08:38 20,0 C 13,5 C 0,0 UV-I 0,0 C 58 % 91 % 0 % 1008,0 hPa 0,0 l/m 2,4 km/h (1 Bft) 0 min 3,5 km/h (1 Bft)
30.05.2010 08:40 20,0 C 13,5 C 0,0 UV-I 0,0 C 58 % 91 % 0 % 1008,0 hPa 0,0 l/m 3,6 km/h (1 Bft) 0 min 9,7 km/h (2 Bft)
30.05.2010 08:42 20,0 C 13,5 C 0,1 UV-I 0,0 C 58 % 91 % 0 % 1008,0 hPa 0,0 l/m 3,6 km/h (1 Bft) 0 min 6,1 km/h (2 Bft)
30.05.2010 08:44 20,0 C 13,5 C 0,1 UV-I 0,0 C 58 % 91 % 0 % 1008,0 hPa 0,0 l/m 4,0 km/h (1 Bft) 0 min 4,8 km/h (1 Bft)
30.05.2010 08:46 20,0 C 13,6 C 0,6 UV-I 0,0 C 58 % 91 % 0 % 1008,0 hPa 0,0 l/m 4,8 km/h (1 Bft) 0 min 7,4 km/h (2 Bft)
30.05.2010 08:48 20,0 C 13,6 C 0,6 UV-I 0,0 C 58 % 91 % 0 % 1008,0 hPa 0,0 l/m 4,4 km/h (1 Bft) 0 min 5,1 km/h (1 Bft)
30.05.2010 08:50 20,0 C 13,6 C 0,6 UV-I 0,0 C 58 % 91 % 0 % 1008,0 hPa 0,0 l/m 4,0 km/h (1 Bft) 0 min 0,0 km/h (0 Bft)
30.05.2010 08:52 20,0 C 13,6 C 0,2 UV-I 0,0 C 58 % 91 % 0 % 1007,9 hPa 0,0 l/m 3,2 km/h (1 Bft) 0 min 3,2 km/h (1 Bft)
30.05.2010 08:53 20,0 C 13,6 C 0,2 UV-I 0,0 C 58 % 91 % 0 % 1007,9 hPa 0,0 l/m 3,6 km/h (1 Bft) 0 min 6,4 km/h (2 Bft)
30.05.2010 08:58 20,0 C 13,6 C 0,5 UV-I 0,0 C 58 % 91 % 0 % 1007,9 hPa 0,0 l/m 4,4 km/h (1 Bft) 0 min 0,0 km/h (0 Bft)
30.05.2010 09:00 20,0 C 13,7 C 1,9 UV-I 0,0 C 58 % 91 % 0 % 1007,9 hPa 0,0 l/m 4,8 km/h (1 Bft) 0 min 0,0 km/h (0 Bft)
30.05.2010 09:02 20,0 C 13,7 C 1,9 UV-I 0,0 C 58 % 91 % 0 % 1007,9 hPa 0,0 l/m 4,8 km/h (1 Bft) 0 min 0,0 km/h (0 Bft)
30.05.2010 09:04 20,0 C 13,7 C 1,9 UV-I 0,1 C 58 % 91 % 3 % 1007,9 hPa 0,0 l/m 5,2 km/h (1 Bft) 0 min 4,2 km/h (1 Bft)
30.05.2010 09:06 20,0 C 13,8 C 1,4 UV-I 0,1 C 58 % 91 % 3 % 1007,9 hPa 0,0 l/m 4,4 km/h (1 Bft) 0 min 6,8 km/h (2 Bft)
30.05.2010 09:08 20,0 C 13,8 C 1,4 UV-I 0,1 C 58 % 91 % 3 % 1007,9 hPa 0,0 l/m 4,4 km/h (1 Bft) 0 min 3,9 km/h (1 Bft)
30.05.2010 09:10 20,0 C 13,9 C 1,4 UV-I 0,1 C 58 % 91 % 3 % 1007,9 hPa 0,0 l/m 3,6 km/h (1 Bft) 0 min 8,0 km/h (2 Bft)
30.05.2010 09:12 20,1 C 13,8 C 2,2 UV-I 0,3 C 58 % 91 % 9 % 1008,0 hPa 0,0 l/m 4,0 km/h (1 Bft) 0 min 0,0 km/h (0 Bft)
30.05.2010 09:14 20,1 C 13,9 C 2,2 UV-I 0,3 C 58 % 91 % 9 % 1008,0 hPa 0,0 l/m 4,0 km/h (1 Bft) 0 min 3,9 km/h (1 Bft)
30.05.2010 09:16 20,1 C 13,9 C 1,7 UV-I 0,3 C 58 % 91 % 9 % 1008,0 hPa 0,0 l/m 4,4 km/h (1 Bft) 0 min 9,0 km/h (2 Bft)
30.05.2010 09:18 20,1 C 13,9 C 1,7 UV-I 0,4 C 58 % 91 % 11 % 1008,0 hPa 0,1 l/m 5,2 km/h (1 Bft) 0 min 6,8 km/h (2 Bft)
30.05.2010 09:20 20,1 C 13,9 C 1,7 UV-I 0,4 C 58 % 91 % 11 % 1008,0 hPa 0,0 l/m 5,2 km/h (1 Bft) 0 min 0,0 km/h (0 Bft)
30.05.2010 09:22 20,1 C 14,0 C 1,6 UV-I 0,4 C 58 % 91 % 11 % 1008,0 hPa 0,0 l/m 4,8 km/h (1 Bft) 0 min 7,4 km/h (2 Bft)
30.05.2010 09:24 20,1 C 14,1 C 1,6 UV-I 0,4 C 58 % 91 % 11 % 1008,0 hPa 0,0 l/m 5,2 km/h (1 Bft) 0 min 6,8 km/h (2 Bft)
30.05.2010 09:26 20,1 C 14,0 C 1,9 UV-I 0,6 C 58 % 90 % 17 % 1008,0 hPa 0,0 l/m 5,6 km/h (1 Bft) 0 min 12,9 km/h (3 Bft)
30.05.2010 09:28 20,1 C 14,0 C 1,9 UV-I 0,6 C 58 % 90 % 17 % 1008,0 hPa 0,0 l/m 5,6 km/h (1 Bft) 0 min 0,0 km/h (0 Bft)
30.05.2010 09:30 20,1 C 14,1 C 1,9 UV-I 0,5 C 58 % 90 % 14 % 1008,0 hPa 0,0 l/m 4,4 km/h (1 Bft) 0 min 4,8 km/h (1 Bft)
30.05.2010 09:32 20,1 C 14,1 C 0,8 UV-I 0,5 C 58 % 90 % 14 % 1008,1 hPa 0,0 l/m 5,2 km/h (1 Bft) 0 min 3,2 km/h (1 Bft)
30.05.2010 09:34 20,1 C 14,1 C 0,8 UV-I 0,5 C 58 % 90 % 14 % 1008,1 hPa 0,0 l/m 5,2 km/h (1 Bft) 0 min 7,1 km/h (2 Bft)
30.05.2010 09:36 20,1 C 14,2 C 1,2 UV-I 0,4 C 58 % 90 % 11 % 1008,1 hPa 0,0 l/m 4,0 km/h (1 Bft) 0 min 3,5 km/h (1 Bft)
30.05.2010 09:38 20,1 C 14,3 C 1,2 UV-I 0,3 C 58 % 90 % 9 % 1008,1 hPa 0,0 l/m 3,6 km/h (1 Bft) 0 min 5,1 km/h (1 Bft)
30.05.2010 09:40 20,2 C 14,3 C 1,2 UV-I 0,5 C 58 % 89 % 14 % 1008,1 hPa 0,0 l/m 4,8 km/h (1 Bft) 0 min 14,5 km/h (3 Bft)
30.05.2010 09:42 20,2 C 14,2 C 2,7 UV-I 0,8 C 58 % 89 % 23 % 1008,1 hPa 0,0 l/m 5,6 km/h (1 Bft) 0 min 5,1 km/h (1 Bft)
30.05.2010 09:44 20,2 C 14,3 C 2,7 UV-I 0,8 C 58 % 89 % 23 % 1008,1 hPa 0,0 l/m 6,0 km/h (2 Bft) 0 min 7,4 km/h (2 Bft)
30.05.2010 09:46 20,2 C 14,3 C 1,5 UV-I 0,9 C 58 % 89 % 26 % 1008,1 hPa 0,0 l/m 5,6 km/h (1 Bft) 0 min 3,9 km/h (1 Bft)
30.05.2010 09:48 20,2 C 14,3 C 1,5 UV-I 0,8 C 58 % 89 % 23 % 1008,1 hPa 0,0 l/m 5,6 km/h (1 Bft) 0 min 0,0 km/h (0 Bft)
30.05.2010 09:50 20,2 C 14,3 C 1,5 UV-I 0,8 C 58 % 89 % 23 % 1008,1 hPa 0,0 l/m 5,6 km/h (1 Bft) 0 min 7,7 km/h (2 Bft)
30.05.2010 09:52 20,2 C 14,4 C 1,4 UV-I 0,7 C 58 % 89 % 20 % 1008,3 hPa 0,0 l/m 4,4 km/h (1 Bft) 0 min 7,4 km/h (2 Bft)
30.05.2010 09:54 20,2 C 14,4 C 1,4 UV-I 0,7 C 57 % 88 % 20 % 1008,3 hPa 0,0 l/m 4,8 km/h (1 Bft) 0 min 9,3 km/h (2 Bft)
30.05.2010 09:56 20,2 C 14,5 C 2,2 UV-I 0,6 C 57 % 88 % 17 % 1008,3 hPa 0,0 l/m 5,2 km/h (1 Bft) 0 min 0,0 km/h (0 Bft)
30.05.2010 09:58 20,2 C 14,4 C 2,2 UV-I 0,8 C 57 % 88 % 23 % 1008,3 hPa 0,0 l/m 4,8 km/h (1 Bft) 0 min 0,0 km/h (0 Bft)
30.05.2010 10:00 20,2 C 14,5 C 2,2 UV-I 0,8 C 57 % 88 % 23 % 1008,3 hPa 0,0 l/m 5,6 km/h (1 Bft) 0 min 10,6 km/h (2 Bft)
30.05.2010 10:02 20,2 C 14,5 C 3,0 UV-I 1,0 C 57 % 87 % 29 % 1008,3 hPa 0,0 l/m 5,6 km/h (1 Bft) 0 min 6,4 km/h (2 Bft)
30.05.2010 10:04 20,3 C 14,7 C 3,0 UV-I 1,0 C 57 % 87 % 29 % 1008,3 hPa 0,0 l/m 6,0 km/h (2 Bft) 0 min 10,3 km/h (2 Bft)
30.05.2010 10:06 20,3 C 14,7 C 2,4 UV-I 1,0 C 57 % 87 % 29 % 1008,3 hPa 0,0 l/m 4,8 km/h (1 Bft) 0 min 3,2 km/h (1 Bft)
30.05.2010 10:08 20,3 C 14,7 C 2,4 UV-I 1,1 C 57 % 87 % 31 % 1008,3 hPa 0,0 l/m 5,2 km/h (1 Bft) 0 min 10,9 km/h (2 Bft)
30.05.2010 10:10 20,2 C 14,6 C 2,4 UV-I 1,2 C 57 % 87 % 34 % 1008,3 hPa 0,0 l/m 5,6 km/h (1 Bft) 0 min 7,7 km/h (2 Bft)
30.05.2010 10:12 20,2 C 14,7 C 1,9 UV-I 1,1 C 57 % 86 % 31 % 1008,1 hPa 0,0 l/m 5,2 km/h (1 Bft) 0 min 5,8 km/h (2 Bft)
30.05.2010 10:14 20,4 C 14,6 C 1,9 UV-I 1,2 C 57 % 86 % 34 % 1008,1 hPa 0,0 l/m 5,6 km/h (1 Bft) 0 min 9,0 km/h (2 Bft)
30.05.2010 10:16 20,4 C 14,7 C 1,3 UV-I 1,0 C 57 % 86 % 29 % 1008,1 hPa 0,0 l/m 5,6 km/h (1 Bft) 0 min 5,5 km/h (1 Bft)
30.05.2010 10:18 20,4 C 14,6 C 1,3 UV-I 1,1 C 57 % 86 % 31 % 1008,1 hPa 0,0 l/m 5,6 km/h (1 Bft) 0 min 5,1 km/h (1 Bft)
30.05.2010 10:20 20,4 C 14,7 C 1,3 UV-I 0,9 C 57 % 87 % 26 % 1008,1 hPa 0,0 l/m 4,8 km/h (1 Bft) 0 min 0,0 km/h (0 Bft)
30.05.2010 10:22 20,4 C 14,6 C 1,3 UV-I 1,0 C 57 % 87 % 29 % 1008,1 hPa 0,0 l/m 5,2 km/h (1 Bft) 0 min 7,4 km/h (2 Bft)
30.05.2010 10:24 20,4 C 14,7 C 1,3 UV-I 0,9 C 57 % 87 % 26 % 1008,1 hPa 0,0 l/m 5,2 km/h (1 Bft) 0 min 6,1 km/h (2 Bft)
30.05.2010 10:26 20,4 C 14,6 C 1,7 UV-I 1,0 C 57 % 86 % 29 % 1008,1 hPa 0,0 l/m 4,8 km/h (1 Bft) 0 min 4,2 km/h (1 Bft)
30.05.2010 10:28 20,4 C 14,6 C 1,7 UV-I 1,0 C 57 % 86 % 29 % 1008,1 hPa 0,0 l/m 5,2 km/h (1 Bft) 0 min 4,5 km/h (1 Bft)
30.05.2010 10:30 20,4 C 14,7 C 1,7 UV-I 1,0 C 57 % 86 % 29 % 1008,1 hPa 0,0 l/m 5,2 km/h (1 Bft) 0 min 4,8 km/h (1 Bft)
30.05.2010 10:32 20,4 C 14,8 C 1,7 UV-I 0,9 C 57 % 86 % 26 % 1008,1 hPa 0,0 l/m 5,2 km/h (1 Bft) 0 min 4,8 km/h (1 Bft)
30.05.2010 10:34 20,4 C 14,8 C 1,7 UV-I 1,1 C 57 % 87 % 31 % 1008,1 hPa 0,0 l/m 4,4 km/h (1 Bft) 0 min 3,2 km/h (1 Bft)
30.05.2010 10:36 20,5 C 14,8 C 4,8 UV-I 1,4 C 57 % 86 % 40 % 1008,1 hPa 0,0 l/m 4,4 km/h (1 Bft) 0 min 8,4 km/h (2 Bft)
30.05.2010 10:38 20,4 C 14,9 C 4,8 UV-I 1,8 C 57 % 86 % 51 % 1008,1 hPa 0,0 l/m 4,0 km/h (1 Bft) 0 min 5,1 km/h (1 Bft)
30.05.2010 10:40 20,5 C 15,1 C 4,8 UV-I 2,2 C 57 % 86 % 63 % 1008,1 hPa 0,0 l/m 4,0 km/h (1 Bft) 0 min 5,1 km/h (1 Bft)
30.05.2010 10:42 20,5 C 15,2 C 7,5 UV-I 2,5 C 57 % 86 % 71 % 1008,1 hPa 0,0 l/m 4,0 km/h (1 Bft) 0 min 8,7 km/h (2 Bft)
30.05.2010 10:44 20,5 C 15,2 C 7,5 UV-I 2,8 C 57 % 85 % 80 % 1008,1 hPa 0,0 l/m 4,4 km/h (1 Bft) 0 min 3,2 km/h (1 Bft)
30.05.2010 10:46 20,6 C 15,2 C 6,3 UV-I 2,9 C 57 % 85 % 83 % 1008,1 hPa 0,0 l/m 4,8 km/h (1 Bft) 2 min 3,5 km/h (1 Bft)
30.05.2010 10:48 20,6 C 15,3 C 6,3 UV-I 2,9 C 57 % 85 % 83 % 1008,1 hPa 0,0 l/m 4,8 km/h (1 Bft) 2 min 5,8 km/h (2 Bft)
30.05.2010 10:50 20,6 C 15,4 C 6,3 UV-I 3,4 C 57 % 84 % 97 % 1008,1 hPa 0,0 l/m 6,8 km/h (2 Bft) 2 min 19,6 km/h (3 Bft)
30.05.2010 10:52 20,6 C 15,6 C 10,9 UV-I 4,0 C 57 % 84 % 100 % 1008,1 hPa 0,0 l/m 7,6 km/h (2 Bft) 2 min 15,8 km/h (3 Bft)
30.05.2010 10:54 20,6 C 15,6 C 10,9 UV-I 4,5 C 57 % 84 % 100 % 1008,1 hPa 0,0 l/m 7,6 km/h (2 Bft) 2 min 5,5 km/h (1 Bft)
30.05.2010 10:56 20,6 C 15,6 C 2,7 UV-I 4,0 C 56 % 82 % 100 % 1008,1 hPa 0,0 l/m 9,2 km/h (2 Bft) 2 min 8,0 km/h (2 Bft)
30.05.2010 10:58 20,6 C 15,5 C 2,7 UV-I 3,5 C 56 % 83 % 100 % 1008,1 hPa 0,0 l/m 10,0 km/h (2 Bft) 2 min 4,8 km/h (1 Bft)
30.05.2010 11:00 20,6 C 15,5 C 2,7 UV-I 2,3 C 56 % 84 % 66 % 1008,1 hPa 0,0 l/m 8,4 km/h (2 Bft) 0 min 4,8 km/h (1 Bft)
30.05.2010 11:02 20,6 C 15,3 C 0,7 UV-I 1,5 C 56 % 84 % 43 % 1008,1 hPa 0,2 l/m 6,8 km/h (2 Bft) 0 min 4,2 km/h (1 Bft)
30.05.2010 11:04 20,7 C 15,3 C 0,7 UV-I 0,9 C 56 % 84 % 26 % 1008,1 hPa 0,0 l/m 5,6 km/h (1 Bft) 0 min 0,0 km/h (0 Bft)
30.05.2010 11:06 20,6 C 15,3 C 1,8 UV-I 0,4 C 56 % 85 % 11 % 1008,1 hPa 0,0 l/m 4,0 km/h (1 Bft) 0 min 3,2 km/h (1 Bft)
30.05.2010 11:08 20,7 C 15,2 C 1,8 UV-I 0,3 C 56 % 86 % 9 % 1008,1 hPa 0,0 l/m 2,4 km/h (1 Bft) 0 min 4,8 km/h (1 Bft)
30.05.2010 11:10 20,7 C 15,1 C 1,8 UV-I 0,4 C 56 % 86 % 11 % 1008,1 hPa 0,0 l/m 2,4 km/h (1 Bft) 0 min 6,1 km/h (2 Bft)
30.05.2010 11:12 20,6 C 15,1 C 3,8 UV-I 0,5 C 56 % 86 % 14 % 1008,1 hPa 0,0 l/m 2,0 km/h (1 Bft) 0 min 7,7 km/h (2 Bft)
30.05.2010 11:14 20,6 C 15,1 C 3,8 UV-I 0,6 C 56 % 86 % 17 % 1008,1 hPa 0,0 l/m 2,0 km/h (1 Bft) 0 min 0,0 km/h (0 Bft)
30.05.2010 11:16 20,7 C 15,2 C 3,1 UV-I 0,8 C 56 % 86 % 23 % 1008,1 hPa 0,0 l/m 2,4 km/h (1 Bft) 0 min 4,8 km/h (1 Bft)
30.05.2010 11:18 20,7 C 15,1 C 3,1 UV-I 1,0 C 56 % 86 % 29 % 1008,1 hPa 0,0 l/m 2,8 km/h (1 Bft) 0 min 5,8 km/h (2 Bft)
30.05.2010 11:20 20,7 C 15,0 C 3,1 UV-I 1,1 C 56 % 86 % 31 % 1008,1 hPa 0,0 l/m 2,8 km/h (1 Bft) 0 min 3,2 km/h (1 Bft)
30.05.2010 11:22 20,6 C 15,0 C 0,9 UV-I 0,9 C 56 % 86 % 26 % 1008,1 hPa 0,0 l/m 4,0 km/h (1 Bft) 0 min 5,8 km/h (2 Bft)
30.05.2010 11:24 20,7 C 15,0 C 0,9 UV-I 0,6 C 56 % 86 % 17 % 1008,1 hPa 0,0 l/m 5,2 km/h (1 Bft) 0 min 9,0 km/h (2 Bft)
30.05.2010 11:26 20,7 C 14,9 C 0,9 UV-I 0,5 C 56 % 85 % 14 % 1008,1 hPa 0,0 l/m 6,0 km/h (2 Bft) 0 min 6,8 km/h (2 Bft)
30.05.2010 11:28 20,7 C 14,8 C 0,9 UV-I 0,2 C 56 % 85 % 6 % 1008,1 hPa 0,0 l/m 6,8 km/h (2 Bft) 0 min 9,3 km/h (2 Bft)
30.05.2010 11:30 20,7 C 14,7 C 0,9 UV-I 0,0 C 56 % 86 % 0 % 1008,1 hPa 0,0 l/m 7,6 km/h (2 Bft) 0 min 3,5 km/h (1 Bft)
30.05.2010 11:32 20,7 C 14,6 C 0,7 UV-I 0,0 C 56 % 86 % 0 % 1008,0 hPa 0,1 l/m 7,6 km/h (2 Bft) 0 min 9,0 km/h (2 Bft)
30.05.2010 11:34 20,7 C 14,6 C 0,7 UV-I 0,0 C 56 % 87 % 0 % 1008,0 hPa 0,0 l/m 6,8 km/h (2 Bft) 0 min 5,8 km/h (2 Bft)
30.05.2010 11:36 20,7 C 14,7 C 1,3 UV-I 0,0 C 56 % 87 % 0 % 1008,0 hPa 0,0 l/m 6,4 km/h (2 Bft) 0 min 6,8 km/h (2 Bft)
30.05.2010 11:38 20,7 C 14,5 C 1,3 UV-I 0,0 C 56 % 87 % 0 % 1008,0 hPa 0,1 l/m 6,8 km/h (2 Bft) 0 min 10,9 km/h (2 Bft)
30.05.2010 11:40 20,7 C 14,5 C 1,3 UV-I 0,0 C 56 % 87 % 0 % 1008,0 hPa 0,0 l/m 5,6 km/h (1 Bft) 0 min 5,1 km/h (1 Bft)
30.05.2010 11:42 20,7 C 14,5 C 2,5 UV-I 0,0 C 56 % 88 % 0 % 1008,0 hPa 0,0 l/m 6,4 km/h (2 Bft) 0 min 10,0 km/h (2 Bft)
30.05.2010 11:44 20,7 C 14,6 C 2,5 UV-I 0,0 C 56 % 88 % 0 % 1008,0 hPa 0,0 l/m 6,4 km/h (2 Bft) 0 min 8,0 km/h (2 Bft)
30.05.2010 11:46 20,7 C 14,6 C 3,9 UV-I 0,0 C 56 % 88 % 0 % 1008,0 hPa 0,0 l/m 6,8 km/h (2 Bft) 0 min 3,2 km/h (1 Bft)
30.05.2010 11:48 20,7 C 14,7 C 3,9 UV-I 0,0 C 56 % 88 % 0 % 1008,0 hPa 0,0 l/m 6,4 km/h (2 Bft) 0 min 6,4 km/h (2 Bft)
30.05.2010 11:50 20,7 C 14,7 C 3,9 UV-I 0,1 C 57 % 88 % 3 % 1008,0 hPa 0,0 l/m 6,0 km/h (2 Bft) 0 min 9,7 km/h (2 Bft)
30.05.2010 11:52 20,7 C 14,7 C 3,1 UV-I 0,3 C 57 % 88 % 9 % 1008,5 hPa 0,0 l/m 5,6 km/h (1 Bft) 0 min 0,0 km/h (0 Bft)
30.05.2010 11:54 20,7 C 14,7 C 3,1 UV-I 0,3 C 56 % 88 % 9 % 1008,5 hPa 0,0 l/m 5,2 km/h (1 Bft) 0 min 7,7 km/h (2 Bft)
30.05.2010 11:56 20,7 C 14,7 C 1,3 UV-I 0,3 C 56 % 88 % 9 % 1008,5 hPa 0,0 l/m 4,8 km/h (1 Bft) 0 min 8,4 km/h (2 Bft)
30.05.2010 11:58 20,7 C 14,6 C 1,3 UV-I 0,2 C 56 % 87 % 6 % 1008,5 hPa 0,0 l/m 6,4 km/h (2 Bft) 0 min 9,7 km/h (2 Bft)
30.05.2010 12:00 20,6 C 14,7 C 1,3 UV-I 0,0 C 56 % 88 % 0 % 1008,5 hPa 0,0 l/m 6,8 km/h (2 Bft) 0 min 7,4 km/h (2 Bft)
30.05.2010 12:02 20,6 C 14,6 C 1,9 UV-I 0,0 C 57 % 88 % 0 % 1008,5 hPa 0,0 l/m 6,4 km/h (2 Bft) 0 min 7,1 km/h (2 Bft)
30.05.2010 12:04 20,7 C 14,5 C 1,9 UV-I 0,0 C 57 % 88 % 0 % 1008,5 hPa 0,0 l/m 6,4 km/h (2 Bft) 0 min 4,2 km/h (1 Bft)
30.05.2010 12:06 20,6 C 14,5 C 2,6 UV-I 0,0 C 57 % 88 % 0 % 1008,5 hPa 0,0 l/m 7,6 km/h (2 Bft) 0 min 10,3 km/h (2 Bft)
30.05.2010 12:08 20,6 C 14,5 C 2,6 UV-I 0,0 C 57 % 89 % 0 % 1008,5 hPa 0,1 l/m 8,0 km/h (2 Bft) 0 min 8,0 km/h (2 Bft)
30.05.2010 12:10 20,7 C 14,4 C 2,6 UV-I 0,0 C 57 % 89 % 0 % 1008,5 hPa 0,0 l/m 7,2 km/h (2 Bft) 0 min 5,1 km/h (1 Bft)
30.05.2010 12:12 20,7 C 14,3 C 2,6 UV-I 0,0 C 57 % 89 % 0 % 1008,4 hPa 0,1 l/m 6,8 km/h (2 Bft) 0 min 4,2 km/h (1 Bft)
30.05.2010 12:14 20,6 C 14,3 C 2,6 UV-I 0,0 C 57 % 89 % 0 % 1008,4 hPa 0,0 l/m 8,4 km/h (2 Bft) 0 min 8,4 km/h (2 Bft)
30.05.2010 12:16 20,6 C 14,3 C 3,9 UV-I 0,0 C 57 % 89 % 0 % 1008,4 hPa 0,0 l/m 8,8 km/h (2 Bft) 0 min 11,6 km/h (2 Bft)
30.05.2010 12:18 20,6 C 14,2 C 3,9 UV-I 0,0 C 57 % 90 % 0 % 1008,4 hPa 0,0 l/m 8,0 km/h (2 Bft) 0 min 11,6 km/h (2 Bft)
30.05.2010 12:20 20,7 C 14,3 C 3,9 UV-I 0,1 C 57 % 90 % 3 % 1008,4 hPa 0,0 l/m 7,2 km/h (2 Bft) 0 min 3,5 km/h (1 Bft)
30.05.2010 12:22 20,7 C 14,4 C 4,4 UV-I 0,2 C 57 % 90 % 6 % 1008,4 hPa 0,0 l/m 6,4 km/h (2 Bft) 0 min 0,0 km/h (0 Bft)
30.05.2010 12:24 20,6 C 14,4 C 4,4 UV-I 0,4 C 57 % 90 % 11 % 1008,4 hPa 0,0 l/m 5,2 km/h (1 Bft) 0 min 0,0 km/h (0 Bft)
30.05.2010 12:26 20,7 C 14,4 C 3,3 UV-I 0,6 C 57 % 90 % 17 % 1008,4 hPa 0,0 l/m 4,8 km/h (1 Bft) 0 min 16,7 km/h (3 Bft)
30.05.2010 12:28 20,7 C 14,4 C 3,3 UV-I 0,7 C 57 % 90 % 20 % 1008,4 hPa 0,0 l/m 3,2 km/h (1 Bft) 0 min 3,9 km/h (1 Bft)
30.05.2010 12:30 20,7 C 14,5 C 3,3 UV-I 0,7 C 57 % 90 % 20 % 1008,4 hPa 0,0 l/m 3,6 km/h (1 Bft) 0 min 7,4 km/h (2 Bft)
30.05.2010 12:32 20,7 C 14,5 C 3,0 UV-I 0,8 C 57 % 90 % 23 % 1008,5 hPa 0,0 l/m 3,6 km/h (1 Bft) 0 min 4,2 km/h (1 Bft)
30.05.2010 12:34 20,7 C 14,6 C 3,0 UV-I 0,9 C 57 % 90 % 26 % 1008,5 hPa 0,0 l/m 4,0 km/h (1 Bft) 0 min 8,7 km/h (2 Bft)
30.05.2010 12:36 20,7 C 14,7 C 3,9 UV-I 0,9 C 57 % 90 % 26 % 1008,5 hPa 0,0 l/m 4,8 km/h (1 Bft) 0 min 7,7 km/h (2 Bft)
30.05.2010 12:38 20,7 C 14,7 C 3,9 UV-I 1,1 C 57 % 90 % 31 % 1008,5 hPa 0,0 l/m 4,8 km/h (1 Bft) 0 min 4,8 km/h (1 Bft)
30.05.2010 12:40 20,7 C 14,8 C 3,9 UV-I 1,3 C 57 % 90 % 37 % 1008,5 hPa 0,0 l/m 5,2 km/h (1 Bft) 0 min 9,3 km/h (2 Bft)
30.05.2010 12:42 20,7 C 14,8 C 6,7 UV-I 1,7 C 57 % 90 % 49 % 1008,5 hPa 0,0 l/m 5,6 km/h (1 Bft) 0 min 7,1 km/h (2 Bft)
30.05.2010 12:44 20,7 C 14,8 C 6,7 UV-I 2,1 C 57 % 89 % 60 % 1008,5 hPa 0,0 l/m 7,2 km/h (2 Bft) 0 min 23,5 km/h (4 Bft)
30.05.2010 12:46 20,7 C 15,0 C 7,2 UV-I 2,1 C 57 % 89 % 60 % 1008,5 hPa 0,0 l/m 6,8 km/h (2 Bft) 0 min 6,8 km/h (2 Bft)
30.05.2010 12:48 20,7 C 15,1 C 7,2 UV-I 2,4 C 57 % 90 % 69 % 1008,5 hPa 0,0 l/m 6,4 km/h (2 Bft) 0 min 5,8 km/h (2 Bft)
30.05.2010 12:50 20,8 C 15,2 C 7,2 UV-I 3,1 C 57 % 90 % 89 % 1008,5 hPa 0,0 l/m 6,4 km/h (2 Bft) 2 min 23,5 km/h (4 Bft)
30.05.2010 12:52 20,8 C 15,5 C 10,8 UV-I 3,8 C 57 % 89 % 100 % 1008,4 hPa 0,0 l/m 6,0 km/h (2 Bft) 2 min 8,0 km/h (2 Bft)
30.05.2010 12:54 20,8 C 15,7 C 10,8 UV-I 4,1 C 57 % 88 % 100 % 1008,4 hPa 0,0 l/m 6,0 km/h (2 Bft) 2 min 7,7 km/h (2 Bft)
30.05.2010 12:56 20,8 C 15,7 C 9,3 UV-I 4,5 C 57 % 88 % 100 % 1008,4 hPa 0,0 l/m 5,6 km/h (1 Bft) 2 min 6,1 km/h (2 Bft)
30.05.2010 12:58 20,8 C 15,7 C 9,3 UV-I 4,6 C 57 % 86 % 100 % 1008,4 hPa 0,0 l/m 6,8 km/h (2 Bft) 2 min 10,6 km/h (2 Bft)
30.05.2010 13:00 20,9 C 15,9 C 9,3 UV-I 4,3 C 57 % 87 % 100 % 1008,4 hPa 0,0 l/m 6,4 km/h (2 Bft) 2 min 6,1 km/h (2 Bft)
30.05.2010 13:02 20,9 C 15,9 C 4,5 UV-I 3,8 C 58 % 86 % 100 % 1008,4 hPa 0,0 l/m 6,8 km/h (2 Bft) 2 min 0,0 km/h (0 Bft)
30.05.2010 13:04 20,9 C 15,9 C 4,5 UV-I 3,5 C 58 % 86 % 100 % 1008,4 hPa 0,0 l/m 6,4 km/h (2 Bft) 2 min 5,1 km/h (1 Bft)
30.05.2010 13:08 21,0 C 16,0 C 8,6 UV-I 3,7 C 58 % 85 % 100 % 1008,4 hPa 0,0 l/m 6,4 km/h (2 Bft) 2 min 12,6 km/h (3 Bft)
30.05.2010 13:10 21,0 C 16,2 C 8,6 UV-I 4,1 C 58 % 85 % 100 % 1008,4 hPa 0,0 l/m 6,8 km/h (2 Bft) 2 min 14,5 km/h (3 Bft)
30.05.2010 13:12 21,0 C 16,3 C 8,4 UV-I 4,1 C 57 % 84 % 100 % 1008,4 hPa 0,0 l/m 6,8 km/h (2 Bft) 2 min 10,0 km/h (2 Bft)
30.05.2010 13:14 21,0 C 16,4 C 8,4 UV-I 4,2 C 58 % 84 % 100 % 1008,4 hPa 0,0 l/m 7,2 km/h (2 Bft) 2 min 7,4 km/h (2 Bft)
30.05.2010 13:16 21,0 C 16,5 C 9,5 UV-I 4,3 C 57 % 83 % 100 % 1008,4 hPa 0,0 l/m 7,6 km/h (2 Bft) 2 min 7,1 km/h (2 Bft)
30.05.2010 13:18 21,1 C 16,5 C 9,5 UV-I 4,3 C 57 % 83 % 100 % 1008,4 hPa 0,0 l/m 8,0 km/h (2 Bft) 2 min 9,0 km/h (2 Bft)
30.05.2010 13:20 21,1 C 16,5 C 9,5 UV-I 4,2 C 57 % 82 % 100 % 1008,4 hPa 0,0 l/m 8,4 km/h (2 Bft) 2 min 10,6 km/h (2 Bft)
30.05.2010 13:22 21,1 C 16,4 C 6,4 UV-I 4,1 C 57 % 81 % 100 % 1008,4 hPa 0,0 l/m 9,2 km/h (2 Bft) 2 min 13,8 km/h (3 Bft)
30.05.2010 13:28 21,2 C 16,3 C 1,9 UV-I 2,5 C 57 % 81 % 71 % 1008,4 hPa 0,0 l/m 8,4 km/h (2 Bft) 0 min 10,0 km/h (2 Bft)
30.05.2010 13:30 21,2 C 16,2 C 1,9 UV-I 2,0 C 57 % 82 % 57 % 1008,4 hPa 0,0 l/m 9,2 km/h (2 Bft) 0 min 19,3 km/h (3 Bft)
30.05.2010 13:32 21,2 C 16,0 C 0,5 UV-I 1,6 C 57 % 83 % 46 % 1008,4 hPa 0,0 l/m 9,2 km/h (2 Bft) 0 min 4,8 km/h (1 Bft)
30.05.2010 13:34 21,2 C 15,6 C 0,5 UV-I 0,9 C 57 % 84 % 26 % 1008,4 hPa 0,2 l/m 9,6 km/h (2 Bft) 0 min 11,3 km/h (2 Bft)
30.05.2010 13:36 21,2 C 15,4 C 2,0 UV-I 0,5 C 57 % 85 % 14 % 1008,4 hPa 0,1 l/m 9,6 km/h (2 Bft) 0 min 17,1 km/h (3 Bft)
30.05.2010 13:38 21,2 C 15,4 C 2,0 UV-I 0,1 C 57 % 86 % 3 % 1008,4 hPa 0,0 l/m 9,6 km/h (2 Bft) 0 min 3,9 km/h (1 Bft)
30.05.2010 13:40 21,2 C 15,3 C 2,0 UV-I 0,1 C 57 % 87 % 3 % 1008,4 hPa 0,0 l/m 10,0 km/h (2 Bft) 0 min 8,7 km/h (2 Bft)
30.05.2010 13:42 21,2 C 15,3 C 2,8 UV-I 0,0 C 57 % 87 % 0 % 1008,4 hPa 0,1 l/m 6,4 km/h (2 Bft) 0 min 0,0 km/h (0 Bft)
30.05.2010 13:44 21,1 C 15,2 C 2,8 UV-I 0,0 C 57 % 87 % 0 % 1008,4 hPa 0,0 l/m 5,2 km/h (1 Bft) 0 min 0,0 km/h (0 Bft)
30.05.2010 13:46 21,1 C 15,2 C 0,5 UV-I 0,0 C 57 % 87 % 0 % 1008,4 hPa 0,0 l/m 4,0 km/h (1 Bft) 0 min 4,2 km/h (1 Bft)
30.05.2010 13:48 21,1 C 15,2 C 0,5 UV-I 0,0 C 57 % 88 % 0 % 1008,4 hPa 0,0 l/m 3,6 km/h (1 Bft) 0 min 9,0 km/h (2 Bft)
30.05.2010 13:50 21,1 C 15,2 C 0,5 UV-I 0,0 C 57 % 87 % 0 % 1008,4 hPa 0,0 l/m 4,8 km/h (1 Bft) 0 min 5,8 km/h (2 Bft)
30.05.2010 13:52 21,1 C 15,2 C 4,3 UV-I 0,2 C 57 % 87 % 6 % 1008,0 hPa 0,0 l/m 5,6 km/h (1 Bft) 0 min 11,6 km/h (2 Bft)
30.05.2010 13:54 21,1 C 15,2 C 4,3 UV-I 0,3 C 57 % 87 % 9 % 1008,0 hPa 0,0 l/m 7,2 km/h (2 Bft) 0 min 14,8 km/h (3 Bft)
30.05.2010 13:56 21,1 C 15,2 C 2,9 UV-I 0,2 C 57 % 87 % 6 % 1008,0 hPa 0,0 l/m 9,2 km/h (2 Bft) 0 min 7,4 km/h (2 Bft)
30.05.2010 13:58 21,1 C 15,2 C 2,9 UV-I 0,2 C 57 % 87 % 6 % 1008,0 hPa 0,0 l/m 10,8 km/h (2 Bft) 0 min 7,7 km/h (2 Bft)
30.05.2010 14:00 21,1 C 15,1 C 2,9 UV-I 0,3 C 57 % 87 % 9 % 1008,0 hPa 0,0 l/m 10,8 km/h (2 Bft) 0 min 7,1 km/h (2 Bft)
30.05.2010 14:02 21,1 C 15,2 C 5,5 UV-I 0,3 C 57 % 87 % 9 % 1008,0 hPa 0,0 l/m 11,2 km/h (2 Bft) 0 min 12,9 km/h (3 Bft)
30.05.2010 14:04 21,1 C 15,2 C 5,5 UV-I 0,5 C 57 % 88 % 14 % 1008,0 hPa 0,0 l/m 11,6 km/h (2 Bft) 0 min 11,9 km/h (2 Bft)
30.05.2010 14:06 21,1 C 15,2 C 5,6 UV-I 0,7 C 57 % 87 % 20 % 1008,0 hPa 0,0 l/m 11,6 km/h (2 Bft) 0 min 8,0 km/h (2 Bft)
30.05.2010 14:08 21,2 C 15,2 C 5,6 UV-I 0,9 C 57 % 87 % 26 % 1008,0 hPa 0,0 l/m 11,6 km/h (2 Bft) 0 min 11,9 km/h (2 Bft)
30.05.2010 14:10 21,2 C 15,2 C 5,6 UV-I 1,1 C 57 % 86 % 31 % 1008,0 hPa 0,0 l/m 12,0 km/h (2 Bft) 0 min 12,9 km/h (3 Bft)
30.05.2010 14:12 21,2 C 15,2 C 5,7 UV-I 1,3 C 57 % 87 % 37 % 1008,1 hPa 0,0 l/m 11,2 km/h (2 Bft) 0 min 13,5 km/h (3 Bft)
30.05.2010 14:16 21,2 C 15,3 C 6,1 UV-I 1,8 C 57 % 86 % 51 % 1008,1 hPa 0,0 l/m 10,0 km/h (2 Bft) 0 min 9,0 km/h (2 Bft)
30.05.2010 14:18 21,1 C 15,5 C 6,1 UV-I 1,9 C 58 % 86 % 54 % 1008,1 hPa 0,0 l/m 9,2 km/h (2 Bft) 0 min 13,8 km/h (3 Bft)
30.05.2010 14:20 21,2 C 15,5 C 6,1 UV-I 2,3 C 58 % 87 % 66 % 1008,1 hPa 0,0 l/m 7,6 km/h (2 Bft) 0 min 11,6 km/h (2 Bft)
30.05.2010 14:22 21,2 C 15,6 C 7,8 UV-I 2,5 C 58 % 86 % 71 % 1008,1 hPa 0,0 l/m 7,2 km/h (2 Bft) 0 min 6,1 km/h (2 Bft)
30.05.2010 14:24 21,2 C 15,6 C 7,8 UV-I 3,0 C 58 % 84 % 86 % 1008,1 hPa 0,0 l/m 8,4 km/h (2 Bft) 2 min 14,8 km/h (3 Bft)
30.05.2010 14:26 21,2 C 15,7 C 7,8 UV-I 3,1 C 58 % 85 % 89 % 1008,1 hPa 0,0 l/m 8,4 km/h (2 Bft) 2 min 11,6 km/h (2 Bft)
30.05.2010 14:28 21,2 C 15,7 C 7,8 UV-I 3,2 C 57 % 85 % 91 % 1008,1 hPa 0,0 l/m 9,2 km/h (2 Bft) 2 min 14,8 km/h (3 Bft)
30.05.2010 14:30 21,2 C 15,8 C 7,8 UV-I 3,2 C 57 % 85 % 91 % 1008,1 hPa 0,0 l/m 10,0 km/h (2 Bft) 2 min 12,9 km/h (3 Bft)
30.05.2010 14:32 21,2 C 15,9 C 5,7 UV-I 2,8 C 57 % 85 % 80 % 1008,1 hPa 0,0 l/m 10,0 km/h (2 Bft) 0 min 7,7 km/h (2 Bft)
30.05.2010 14:34 21,2 C 15,9 C 5,7 UV-I 2,8 C 57 % 84 % 80 % 1008,1 hPa 0,0 l/m 10,4 km/h (2 Bft) 0 min 14,2 km/h (3 Bft)
30.05.2010 14:36 21,3 C 15,9 C 6,2 UV-I 3,0 C 57 % 85 % 86 % 1008,1 hPa 0,0 l/m 9,2 km/h (2 Bft) 2 min 8,4 km/h (2 Bft)
30.05.2010 14:38 21,3 C 16,0 C 6,2 UV-I 3,0 C 57 % 84 % 86 % 1008,1 hPa 0,0 l/m 9,2 km/h (2 Bft) 2 min 9,7 km/h (2 Bft)
30.05.2010 14:40 21,2 C 16,0 C 6,2 UV-I 3,0 C 57 % 83 % 86 % 1008,1 hPa 0,0 l/m 8,4 km/h (2 Bft) 2 min 10,9 km/h (2 Bft)
30.05.2010 14:42 21,3 C 16,0 C 4,1 UV-I 2,8 C 57 % 83 % 80 % 1008,1 hPa 0,0 l/m 8,4 km/h (2 Bft) 0 min 13,8 km/h (3 Bft)
30.05.2010 14:44 21,2 C 16,0 C 4,1 UV-I 2,7 C 57 % 83 % 77 % 1008,1 hPa 0,0 l/m 8,4 km/h (2 Bft) 0 min 6,1 km/h (2 Bft)
30.05.2010 14:46 21,2 C 16,0 C 2,2 UV-I 2,4 C 57 % 82 % 69 % 1008,1 hPa 0,0 l/m 8,8 km/h (2 Bft) 0 min 13,8 km/h (3 Bft)
30.05.2010 14:48 21,2 C 16,0 C 2,2 UV-I 2,0 C 57 % 83 % 57 % 1008,1 hPa 0,0 l/m 8,8 km/h (2 Bft) 0 min 12,2 km/h (2 Bft)
30.05.2010 14:50 21,3 C 15,9 C 2,2 UV-I 1,8 C 57 % 82 % 51 % 1008,1 hPa 0,0 l/m 9,6 km/h (2 Bft) 0 min 17,7 km/h (3 Bft)
30.05.2010 14:52 21,2 C 15,9 C 0,2 UV-I 1,4 C 57 % 83 % 40 % 1007,9 hPa 0,0 l/m 9,6 km/h (2 Bft) 0 min 5,8 km/h (2 Bft)
30.05.2010 14:54 21,2 C 15,7 C 0,2 UV-I 1,4 C 57 % 83 % 40 % 1007,9 hPa 0,0 l/m 9,2 km/h (2 Bft) 0 min 12,6 km/h (3 Bft)
30.05.2010 14:56 21,3 C 15,7 C 1,7 UV-I 1,1 C 57 % 83 % 31 % 1007,9 hPa 0,0 l/m 10,4 km/h (2 Bft) 0 min 14,5 km/h (3 Bft)
30.05.2010 14:58 21,3 C 15,6 C 1,7 UV-I 1,0 C 57 % 83 % 29 % 1007,9 hPa 0,0 l/m 10,0 km/h (2 Bft) 0 min 9,7 km/h (2 Bft)
30.05.2010 15:00 21,3 C 15,6 C 1,7 UV-I 0,8 C 57 % 83 % 23 % 1007,9 hPa 0,0 l/m 10,4 km/h (2 Bft) 0 min 15,1 km/h (3 Bft)
30.05.2010 15:02 21,2 C 15,7 C 2,1 UV-I 0,6 C 57 % 83 % 17 % 1007,9 hPa 0,0 l/m 10,4 km/h (2 Bft) 0 min 14,2 km/h (3 Bft)
30.05.2010 15:04 21,2 C 15,7 C 2,1 UV-I 0,8 C 57 % 83 % 23 % 1007,9 hPa 0,0 l/m 10,8 km/h (2 Bft) 0 min 9,0 km/h (2 Bft)
30.05.2010 15:06 21,2 C 15,9 C 6,3 UV-I 0,8 C 57 % 83 % 23 % 1007,9 hPa 0,0 l/m 10,0 km/h (2 Bft) 0 min 4,2 km/h (1 Bft)
30.05.2010 15:08 21,2 C 16,1 C 6,3 UV-I 1,3 C 57 % 83 % 37 % 1007,9 hPa 0,0 l/m 9,6 km/h (2 Bft) 0 min 10,9 km/h (2 Bft)
30.05.2010 15:10 21,2 C 16,1 C 6,3 UV-I 1,7 C 57 % 82 % 49 % 1007,9 hPa 0,0 l/m 9,2 km/h (2 Bft) 0 min 7,4 km/h (2 Bft)
30.05.2010 15:12 21,2 C 16,2 C 7,7 UV-I 2,1 C 57 % 82 % 60 % 1007,8 hPa 0,0 l/m 8,8 km/h (2 Bft) 0 min 8,4 km/h (2 Bft)
30.05.2010 15:14 21,2 C 16,3 C 7,7 UV-I 2,5 C 57 % 82 % 71 % 1007,8 hPa 0,0 l/m 8,4 km/h (2 Bft) 0 min 8,7 km/h (2 Bft)
30.05.2010 15:16 21,4 C 16,4 C 4,8 UV-I 2,7 C 57 % 81 % 77 % 1007,8 hPa 0,0 l/m 9,2 km/h (2 Bft) 0 min 16,1 km/h (3 Bft)
30.05.2010 15:18 21,4 C 16,3 C 4,8 UV-I 2,6 C 57 % 81 % 74 % 1007,8 hPa 0,0 l/m 10,8 km/h (2 Bft) 0 min 14,8 km/h (3 Bft)
30.05.2010 15:20 21,4 C 16,1 C 4,8 UV-I 2,3 C 57 % 81 % 66 % 1007,8 hPa 0,0 l/m 12,0 km/h (2 Bft) 0 min 17,7 km/h (3 Bft)
30.05.2010 15:22 21,4 C 16,1 C 0,8 UV-I 1,8 C 57 % 81 % 51 % 1007,8 hPa 0,0 l/m 12,0 km/h (2 Bft) 0 min 9,7 km/h (2 Bft)
30.05.2010 15:24 21,4 C 15,9 C 0,8 UV-I 1,5 C 56 % 81 % 43 % 1007,8 hPa 0,0 l/m 12,8 km/h (3 Bft) 0 min 6,8 km/h (2 Bft)
30.05.2010 15:26 21,4 C 15,9 C 0,4 UV-I 1,1 C 56 % 81 % 31 % 1007,8 hPa 0,0 l/m 12,4 km/h (3 Bft) 0 min 13,2 km/h (3 Bft)
30.05.2010 15:28 21,4 C 15,9 C 0,4 UV-I 0,9 C 56 % 81 % 26 % 1007,8 hPa 0,0 l/m 11,6 km/h (2 Bft) 0 min 9,7 km/h (2 Bft)
30.05.2010 15:30 21,4 C 15,7 C 0,4 UV-I 0,8 C 56 % 81 % 23 % 1007,8 hPa 0,0 l/m 11,6 km/h (2 Bft) 0 min 4,8 km/h (1 Bft)
30.05.2010 15:32 21,4 C 15,7 C 0,7 UV-I 0,7 C 56 % 81 % 20 % 1007,8 hPa 0,0 l/m 10,8 km/h (2 Bft) 0 min 3,9 km/h (1 Bft)
30.05.2010 15:34 21,2 C 15,7 C 0,7 UV-I 0,6 C 56 % 81 % 17 % 1007,8 hPa 0,0 l/m 10,0 km/h (2 Bft) 0 min 7,1 km/h (2 Bft)
30.05.2010 15:36 21,2 C 15,6 C 0,1 UV-I 0,5 C 56 % 81 % 14 % 1007,8 hPa 0,0 l/m 11,2 km/h (2 Bft) 0 min 26,1 km/h (4 Bft)
30.05.2010 15:38 21,2 C 15,5 C 0,1 UV-I 0,4 C 56 % 82 % 11 % 1007,8 hPa 0,1 l/m 11,6 km/h (2 Bft) 0 min 10,6 km/h (2 Bft)
30.05.2010 15:40 21,2 C 15,3 C 0,1 UV-I 0,2 C 56 % 82 % 6 % 1007,8 hPa 0,0 l/m 11,2 km/h (2 Bft) 0 min 26,1 km/h (4 Bft)
30.05.2010 15:42 21,3 C 15,3 C 0,0 UV-I 0,0 C 56 % 83 % 0 % 1007,8 hPa 0,0 l/m 12,8 km/h (3 Bft) 0 min 13,2 km/h (3 Bft)
30.05.2010 15:44 21,3 C 15,1 C 0,0 UV-I 0,0 C 56 % 84 % 0 % 1007,8 hPa 0,0 l/m 15,3 km/h (3 Bft) 0 min 29,6 km/h (5 Bft)
30.05.2010 15:46 21,2 C 14,8 C 0,4 UV-I 0,0 C 56 % 84 % 0 % 1007,8 hPa 0,1 l/m 15,3 km/h (3 Bft) 0 min 17,7 km/h (3 Bft)
30.05.2010 15:48 21,2 C 14,8 C 0,4 UV-I 0,0 C 56 % 85 % 0 % 1007,8 hPa 0,0 l/m 14,5 km/h (3 Bft) 0 min 5,8 km/h (2 Bft)
30.05.2010 15:50 21,2 C 14,7 C 0,4 UV-I 0,0 C 56 % 85 % 0 % 1007,8 hPa 0,0 l/m 14,9 km/h (3 Bft) 0 min 30,9 km/h (5 Bft)
30.05.2010 15:52 21,2 C 14,6 C 2,0 UV-I 0,0 C 56 % 86 % 0 % 1008,2 hPa 0,0 l/m 15,7 km/h (3 Bft) 0 min 23,2 km/h (4 Bft)
30.05.2010 15:54 21,2 C 14,5 C 2,0 UV-I 0,0 C 56 % 86 % 0 % 1008,2 hPa 0,0 l/m 14,5 km/h (3 Bft) 0 min 36,4 km/h (5 Bft)
30.05.2010 15:56 21,2 C 14,5 C 2,1 UV-I 0,0 C 56 % 86 % 0 % 1008,2 hPa 0,0 l/m 14,1 km/h (3 Bft) 0 min 13,5 km/h (3 Bft)
30.05.2010 15:58 21,2 C 14,3 C 2,1 UV-I 0,0 C 56 % 86 % 0 % 1008,2 hPa 0,0 l/m 14,1 km/h (3 Bft) 0 min 5,8 km/h (2 Bft)
30.05.2010 16:00 21,2 C 14,3 C 2,1 UV-I 0,0 C 56 % 86 % 0 % 1008,2 hPa 0,0 l/m 14,1 km/h (3 Bft) 0 min 36,4 km/h (5 Bft)
30.05.2010 16:02 21,2 C 14,3 C 1,2 UV-I 0,0 C 56 % 86 % 0 % 1008,2 hPa 0,0 l/m 12,8 km/h (3 Bft) 0 min 8,7 km/h (2 Bft)
30.05.2010 16:04 21,1 C 14,3 C 1,2 UV-I 0,0 C 56 % 86 % 0 % 1008,2 hPa 0,0 l/m 12,0 km/h (2 Bft) 0 min 13,5 km/h (3 Bft)
30.05.2010 16:06 21,1 C 14,2 C 0,6 UV-I 0,0 C 56 % 86 % 0 % 1008,2 hPa 0,0 l/m 10,8 km/h (2 Bft) 0 min 13,2 km/h (3 Bft)
30.05.2010 16:08 21,1 C 14,2 C 0,6 UV-I 0,0 C 56 % 86 % 0 % 1008,2 hPa 0,0 l/m 9,6 km/h (2 Bft) 0 min 10,3 km/h (2 Bft)
30.05.2010 16:10 21,1 C 14,1 C 0,6 UV-I 0,0 C 56 % 86 % 0 % 1008,2 hPa 0,0 l/m 8,8 km/h (2 Bft) 0 min 6,8 km/h (2 Bft)
30.05.2010 16:12 21,0 C 14,0 C 0,4 UV-I 0,0 C 56 % 86 % 0 % 1008,4 hPa 0,0 l/m 8,4 km/h (2 Bft) 0 min 9,0 km/h (2 Bft)
30.05.2010 16:14 21,0 C 14,0 C 0,4 UV-I 0,0 C 56 % 87 % 0 % 1008,4 hPa 0,0 l/m 8,0 km/h (2 Bft) 0 min 11,9 km/h (2 Bft)
30.05.2010 16:16 21,0 C 13,9 C 0,8 UV-I 0,0 C 56 % 87 % 0 % 1008,4 hPa 0,1 l/m 8,4 km/h (2 Bft) 0 min 4,8 km/h (1 Bft)
30.05.2010 16:18 21,0 C 13,8 C 0,8 UV-I 0,0 C 56 % 87 % 0 % 1008,4 hPa 0,1 l/m 7,6 km/h (2 Bft) 0 min 3,9 km/h (1 Bft)
30.05.2010 16:20 21,0 C 13,9 C 0,8 UV-I 0,0 C 56 % 87 % 0 % 1008,4 hPa 0,0 l/m 8,8 km/h (2 Bft) 0 min 12,2 km/h (2 Bft)
30.05.2010 16:22 21,0 C 13,6 C 0,5 UV-I 0,0 C 56 % 87 % 0 % 1008,4 hPa 0,0 l/m 9,6 km/h (2 Bft) 0 min 10,6 km/h (2 Bft)
30.05.2010 16:24 20,9 C 13,5 C 0,5 UV-I 0,0 C 57 % 87 % 0 % 1008,4 hPa 0,1 l/m 10,4 km/h (2 Bft) 0 min 11,6 km/h (2 Bft)
30.05.2010 16:26 20,9 C 13,4 C 0,1 UV-I 0,0 C 56 % 88 % 0 % 1008,4 hPa 0,0 l/m 10,0 km/h (2 Bft) 0 min 0,0 km/h (0 Bft)
30.05.2010 16:28 20,9 C 13,4 C 0,1 UV-I 0,0 C 57 % 88 % 0 % 1008,4 hPa 0,0 l/m 9,2 km/h (2 Bft) 0 min 12,6 km/h (3 Bft)
30.05.2010 16:30 20,9 C 13,3 C 0,1 UV-I 0,0 C 57 % 88 % 0 % 1008,4 hPa 0,0 l/m 9,2 km/h (2 Bft) 0 min 5,5 km/h (1 Bft)
30.05.2010 16:32 20,8 C 13,3 C 0,4 UV-I 0,0 C 57 % 88 % 0 % 1008,8 hPa 0,0 l/m 8,0 km/h (2 Bft) 0 min 13,2 km/h (3 Bft)
30.05.2010 16:34 20,8 C 13,3 C 0,4 UV-I 0,0 C 57 % 88 % 0 % 1008,8 hPa 0,0 l/m 7,2 km/h (2 Bft) 0 min 6,4 km/h (2 Bft)
30.05.2010 16:36 20,8 C 13,2 C 0,9 UV-I 0,0 C 57 % 88 % 0 % 1008,8 hPa 0,0 l/m 6,8 km/h (2 Bft) 0 min 16,7 km/h (3 Bft)
30.05.2010 16:38 20,8 C 13,2 C 0,9 UV-I 0,0 C 57 % 88 % 0 % 1008,8 hPa 0,0 l/m 7,2 km/h (2 Bft) 0 min 4,5 km/h (1 Bft)
30.05.2010 16:42 20,8 C 13,2 C 2,4 UV-I 0,0 C 57 % 88 % 0 % 1008,8 hPa 0,0 l/m 7,6 km/h (2 Bft) 0 min 17,4 km/h (3 Bft)
30.05.2010 16:44 20,8 C 13,2 C 2,4 UV-I 0,1 C 57 % 88 % 3 % 1008,8 hPa 0,0 l/m 8,0 km/h (2 Bft) 0 min 13,2 km/h (3 Bft)
30.05.2010 16:46 20,8 C 13,2 C 0,8 UV-I 0,1 C 57 % 87 % 3 % 1008,8 hPa 0,0 l/m 8,0 km/h (2 Bft) 0 min 5,8 km/h (2 Bft)
30.05.2010 16:48 20,7 C 13,3 C 0,8 UV-I 0,0 C 56 % 87 % 0 % 1008,8 hPa 0,0 l/m 7,6 km/h (2 Bft) 0 min 4,2 km/h (1 Bft)
30.05.2010 16:50 20,7 C 13,2 C 0,8 UV-I 0,1 C 56 % 87 % 3 % 1008,8 hPa 0,0 l/m 7,6 km/h (2 Bft) 0 min 5,8 km/h (2 Bft)
30.05.2010 16:52 20,7 C 13,1 C 0,2 UV-I 0,1 C 56 % 87 % 3 % 1008,5 hPa 0,0 l/m 7,6 km/h (2 Bft) 0 min 9,7 km/h (2 Bft)
30.05.2010 16:54 20,7 C 13,2 C 0,2 UV-I 0,0 C 56 % 87 % 0 % 1008,5 hPa 0,0 l/m 6,8 km/h (2 Bft) 0 min 9,7 km/h (2 Bft)
30.05.2010 16:56 20,7 C 13,1 C 1,5 UV-I 0,1 C 56 % 86 % 3 % 1008,5 hPa 0,0 l/m 8,0 km/h (2 Bft) 0 min 7,1 km/h (2 Bft)
30.05.2010 16:58 20,7 C 13,2 C 1,5 UV-I 0,1 C 56 % 87 % 3 % 1008,5 hPa 0,0 l/m 7,6 km/h (2 Bft) 0 min 9,0 km/h (2 Bft)
30.05.2010 17:00 20,6 C 13,3 C 1,5 UV-I 0,1 C 56 % 86 % 3 % 1008,5 hPa 0,0 l/m 8,4 km/h (2 Bft) 0 min 8,4 km/h (2 Bft)
30.05.2010 17:02 20,6 C 13,2 C 2,9 UV-I 0,3 C 56 % 86 % 9 % 1008,5 hPa 0,0 l/m 8,4 km/h (2 Bft) 0 min 15,8 km/h (3 Bft)
30.05.2010 17:04 20,6 C 13,2 C 2,9 UV-I 0,6 C 56 % 86 % 17 % 1008,5 hPa 0,0 l/m 8,4 km/h (2 Bft) 0 min 7,7 km/h (2 Bft)
30.05.2010 17:06 20,6 C 13,3 C 2,6 UV-I 0,6 C 56 % 86 % 17 % 1008,5 hPa 0,0 l/m 8,4 km/h (2 Bft) 0 min 17,4 km/h (3 Bft)
30.05.2010 17:08 20,6 C 13,3 C 2,6 UV-I 0,7 C 56 % 87 % 20 % 1008,5 hPa 0,0 l/m 7,6 km/h (2 Bft) 0 min 5,1 km/h (1 Bft)
30.05.2010 17:10 20,6 C 13,5 C 2,6 UV-I 0,7 C 56 % 86 % 20 % 1008,5 hPa 0,0 l/m 7,2 km/h (2 Bft) 0 min 7,1 km/h (2 Bft)
30.05.2010 17:12 20,6 C 13,5 C 1,9 UV-I 0,7 C 56 % 86 % 20 % 1009,0 hPa 0,0 l/m 8,0 km/h (2 Bft) 0 min 4,8 km/h (1 Bft)
30.05.2010 17:14 20,6 C 13,4 C 1,9 UV-I 0,8 C 56 % 86 % 23 % 1009,0 hPa 0,0 l/m 8,4 km/h (2 Bft) 0 min 6,8 km/h (2 Bft)
30.05.2010 17:16 20,6 C 13,5 C 1,4 UV-I 0,5 C 56 % 86 % 14 % 1009,0 hPa 0,0 l/m 8,0 km/h (2 Bft) 0 min 7,4 km/h (2 Bft)
30.05.2010 17:18 20,6 C 13,5 C 1,4 UV-I 0,4 C 56 % 86 % 11 % 1009,0 hPa 0,0 l/m 8,0 km/h (2 Bft) 0 min 14,8 km/h (3 Bft)
30.05.2010 17:20 20,6 C 13,3 C 1,4 UV-I 0,6 C 56 % 85 % 17 % 1009,0 hPa 0,0 l/m 8,8 km/h (2 Bft) 0 min 12,2 km/h (2 Bft)
30.05.2010 17:22 20,6 C 13,3 C 1,4 UV-I 0,5 C 56 % 85 % 14 % 1009,0 hPa 0,0 l/m 7,6 km/h (2 Bft) 0 min 6,8 km/h (2 Bft)
30.05.2010 17:24 20,6 C 13,3 C 1,4 UV-I 0,4 C 56 % 84 % 11 % 1009,0 hPa 0,0 l/m 8,0 km/h (2 Bft) 0 min 11,9 km/h (2 Bft)
30.05.2010 17:26 20,6 C 13,3 C 2,5 UV-I 0,4 C 56 % 85 % 11 % 1009,0 hPa 0,0 l/m 7,2 km/h (2 Bft) 0 min 4,5 km/h (1 Bft)
30.05.2010 17:28 20,6 C 13,4 C 2,5 UV-I 0,4 C 56 % 85 % 11 % 1009,0 hPa 0,0 l/m 8,0 km/h (2 Bft) 0 min 11,6 km/h (2 Bft)
30.05.2010 17:30 20,6 C 13,5 C 2,5 UV-I 0,4 C 56 % 85 % 11 % 1009,0 hPa 0,0 l/m 8,0 km/h (2 Bft) 0 min 8,0 km/h (2 Bft)
30.05.2010 17:32 20,6 C 13,5 C 2,4 UV-I 0,5 C 56 % 85 % 14 % 1009,0 hPa 0,0 l/m 8,0 km/h (2 Bft) 0 min 12,6 km/h (3 Bft)
30.05.2010 17:34 20,6 C 13,5 C 2,4 UV-I 0,6 C 56 % 85 % 17 % 1009,0 hPa 0,0 l/m 6,8 km/h (2 Bft) 0 min 3,2 km/h (1 Bft)
30.05.2010 17:36 20,6 C 13,5 C 1,5 UV-I 0,6 C 56 % 85 % 17 % 1009,0 hPa 0,0 l/m 7,6 km/h (2 Bft) 0 min 11,9 km/h (2 Bft)
30.05.2010 17:38 20,6 C 13,4 C 1,5 UV-I 0,6 C 56 % 85 % 17 % 1009,0 hPa 0,0 l/m 7,2 km/h (2 Bft) 0 min 11,3 km/h (2 Bft)
30.05.2010 17:40 20,6 C 13,5 C 1,5 UV-I 0,4 C 56 % 85 % 11 % 1009,0 hPa 0,0 l/m 6,8 km/h (2 Bft) 0 min 3,9 km/h (1 Bft)
30.05.2010 17:42 20,6 C 13,4 C 1,3 UV-I 0,3 C 56 % 86 % 9 % 1009,0 hPa 0,0 l/m 6,4 km/h (2 Bft) 0 min 7,7 km/h (2 Bft)
30.05.2010 17:44 20,6 C 13,3 C 1,3 UV-I 0,2 C 56 % 85 % 6 % 1009,0 hPa 0,1 l/m 6,4 km/h (2 Bft) 0 min 12,9 km/h (3 Bft)
30.05.2010 17:46 20,6 C 13,3 C 0,6 UV-I 0,0 C 56 % 85 % 0 % 1009,0 hPa 0,1 l/m 6,4 km/h (2 Bft) 0 min 8,7 km/h (2 Bft)
30.05.2010 17:48 20,6 C 13,3 C 0,6 UV-I 0,0 C 56 % 86 % 0 % 1009,0 hPa 0,0 l/m 6,0 km/h (2 Bft) 0 min 8,7 km/h (2 Bft)
30.05.2010 17:50 20,5 C 13,3 C 0,6 UV-I 0,0 C 56 % 86 % 0 % 1009,0 hPa 0,1 l/m 5,6 km/h (1 Bft) 0 min 7,4 km/h (2 Bft)
30.05.2010 17:52 20,6 C 13,5 C 5,0 UV-I 0,1 C 56 % 86 % 3 % 1008,6 hPa 0,0 l/m 6,8 km/h (2 Bft) 0 min 12,9 km/h (3 Bft)
30.05.2010 17:54 20,6 C 13,5 C 5,0 UV-I 0,8 C 57 % 86 % 23 % 1008,6 hPa 0,0 l/m 7,6 km/h (2 Bft) 0 min 10,0 km/h (2 Bft)
30.05.2010 17:56 20,7 C 13,6 C 4,7 UV-I 1,0 C 57 % 86 % 29 % 1008,6 hPa 0,0 l/m 7,2 km/h (2 Bft) 0 min 10,0 km/h (2 Bft)
30.05.2010 17:58 20,7 C 13,6 C 4,7 UV-I 1,4 C 57 % 86 % 40 % 1008,6 hPa 0,0 l/m 7,6 km/h (2 Bft) 0 min 6,8 km/h (2 Bft)
30.05.2010 18:00 20,8 C 13,7 C 4,7 UV-I 1,6 C 57 % 86 % 46 % 1008,6 hPa 0,0 l/m 7,2 km/h (2 Bft) 0 min 5,1 km/h (1 Bft)
30.05.2010 18:02 20,8 C 13,8 C 3,7 UV-I 1,6 C 57 % 85 % 46 % 1008,6 hPa 0,0 l/m 6,8 km/h (2 Bft) 0 min 9,3 km/h (2 Bft)
30.05.2010 18:04 20,9 C 13,8 C 3,7 UV-I 1,5 C 57 % 85 % 43 % 1008,6 hPa 0,0 l/m 6,0 km/h (2 Bft) 0 min 3,2 km/h (1 Bft)
30.05.2010 18:06 20,9 C 13,7 C 2,2 UV-I 1,4 C 57 % 84 % 40 % 1008,6 hPa 0,0 l/m 6,8 km/h (2 Bft) 0 min 15,4 km/h (3 Bft)
30.05.2010 18:08 20,9 C 13,8 C 2,2 UV-I 1,1 C 57 % 84 % 31 % 1008,6 hPa 0,0 l/m 6,4 km/h (2 Bft) 0 min 8,4 km/h (2 Bft)
30.05.2010 18:10 21,0 C 13,7 C 2,2 UV-I 1,0 C 56 % 84 % 29 % 1008,6 hPa 0,0 l/m 6,8 km/h (2 Bft) 0 min 11,6 km/h (2 Bft)
30.05.2010 18:12 21,0 C 13,7 C 2,2 UV-I 0,8 C 56 % 83 % 23 % 1009,2 hPa 0,0 l/m 8,0 km/h (2 Bft) 0 min 15,4 km/h (3 Bft)
30.05.2010 18:14 21,0 C 13,7 C 2,2 UV-I 0,5 C 56 % 83 % 14 % 1009,2 hPa 0,0 l/m 8,4 km/h (2 Bft) 0 min 7,4 km/h (2 Bft)
30.05.2010 18:16 21,0 C 13,6 C 0,8 UV-I 0,4 C 56 % 83 % 11 % 1009,2 hPa 0,0 l/m 8,8 km/h (2 Bft) 0 min 13,5 km/h (3 Bft)
30.05.2010 18:18 21,0 C 13,6 C 0,8 UV-I 0,3 C 55 % 83 % 9 % 1009,2 hPa 0,0 l/m 8,4 km/h (2 Bft) 0 min 5,1 km/h (1 Bft)
30.05.2010 18:20 21,0 C 13,6 C 0,8 UV-I 0,2 C 55 % 82 % 6 % 1009,2 hPa 0,0 l/m 10,0 km/h (2 Bft) 0 min 16,1 km/h (3 Bft)
30.05.2010 18:22 21,0 C 13,5 C 0,8 UV-I 0,2 C 55 % 82 % 6 % 1009,2 hPa 0,0 l/m 10,8 km/h (2 Bft) 0 min 17,1 km/h (3 Bft)
30.05.2010 18:26 20,9 C 13,5 C 1,5 UV-I 0,2 C 55 % 82 % 6 % 1009,2 hPa 0,0 l/m 10,0 km/h (2 Bft) 0 min 7,4 km/h (2 Bft)
30.05.2010 18:28 20,9 C 13,6 C 1,5 UV-I 0,2 C 55 % 83 % 6 % 1009,2 hPa 0,0 l/m 8,8 km/h (2 Bft) 0 min 0,0 km/h (0 Bft)
30.05.2010 18:30 20,9 C 13,6 C 1,5 UV-I 0,3 C 55 % 82 % 9 % 1009,2 hPa 0,0 l/m 8,0 km/h (2 Bft) 0 min 12,6 km/h (3 Bft)
30.05.2010 18:32 20,9 C 13,6 C 2,7 UV-I 0,8 C 55 % 83 % 23 % 1009,2 hPa 0,0 l/m 6,4 km/h (2 Bft) 0 min 11,6 km/h (2 Bft)
30.05.2010 18:34 20,9 C 13,8 C 2,7 UV-I 0,9 C 55 % 83 % 26 % 1009,2 hPa 0,0 l/m 5,2 km/h (1 Bft) 0 min 5,5 km/h (1 Bft)
30.05.2010 18:36 21,0 C 13,9 C 3,4 UV-I 1,1 C 55 % 83 % 31 % 1009,2 hPa 0,0 l/m 6,0 km/h (2 Bft) 0 min 22,2 km/h (4 Bft)
30.05.2010 18:38 20,9 C 13,8 C 3,4 UV-I 1,4 C 55 % 82 % 40 % 1009,2 hPa 0,0 l/m 7,2 km/h (2 Bft) 0 min 19,6 km/h (3 Bft)
30.05.2010 18:40 21,0 C 13,9 C 3,4 UV-I 1,2 C 55 % 81 % 34 % 1009,2 hPa 0,0 l/m 8,4 km/h (2 Bft) 0 min 12,6 km/h (3 Bft)
30.05.2010 18:42 21,0 C 13,9 C 2,9 UV-I 1,1 C 55 % 81 % 31 % 1009,2 hPa 0,0 l/m 8,8 km/h (2 Bft) 0 min 9,7 km/h (2 Bft)
30.05.2010 18:44 20,9 C 13,9 C 2,9 UV-I 1,0 C 55 % 82 % 29 % 1009,2 hPa 0,0 l/m 8,8 km/h (2 Bft) 0 min 5,1 km/h (1 Bft)
30.05.2010 18:46 20,9 C 13,9 C 2,4 UV-I 0,9 C 55 % 82 % 26 % 1009,2 hPa 0,0 l/m 8,8 km/h (2 Bft) 0 min 4,8 km/h (1 Bft)
30.05.2010 18:48 20,9 C 13,9 C 2,4 UV-I 0,9 C 55 % 82 % 26 % 1009,2 hPa 0,0 l/m 8,0 km/h (2 Bft) 0 min 4,5 km/h (1 Bft)
30.05.2010 18:50 20,9 C 13,9 C 2,4 UV-I 0,8 C 55 % 82 % 23 % 1009,2 hPa 0,0 l/m 8,0 km/h (2 Bft) 0 min 4,5 km/h (1 Bft)
30.05.2010 18:52 20,9 C 13,8 C 1,4 UV-I 0,8 C 55 % 81 % 23 % 1009,1 hPa 0,0 l/m 7,2 km/h (2 Bft) 0 min 6,8 km/h (2 Bft)
30.05.2010 18:54 20,9 C 13,9 C 1,4 UV-I 0,6 C 55 % 81 % 17 % 1009,1 hPa 0,0 l/m 7,6 km/h (2 Bft) 0 min 7,7 km/h (2 Bft)
30.05.2010 18:56 20,9 C 13,7 C 1,1 UV-I 0,7 C 55 % 81 % 20 % 1009,1 hPa 0,0 l/m 7,6 km/h (2 Bft) 0 min 17,7 km/h (3 Bft)
30.05.2010 18:58 20,9 C 13,7 C 1,1 UV-I 0,5 C 55 % 81 % 14 % 1009,1 hPa 0,0 l/m 8,0 km/h (2 Bft) 0 min 9,7 km/h (2 Bft)
30.05.2010 19:00 20,8 C 13,7 C 1,1 UV-I 0,2 C 55 % 82 % 6 % 1009,1 hPa 0,0 l/m 8,0 km/h (2 Bft) 0 min 21,6 km/h (4 Bft)
30.05.2010 19:02 20,9 C 13,5 C 0,2 UV-I 0,2 C 55 % 79 % 6 % 1009,1 hPa 1,0 l/m 10,4 km/h (2 Bft) 0 min 32,8 km/h (5 Bft)
30.05.2010 19:04 20,8 C 13,0 C 0,2 UV-I 0,1 C 54 % 79 % 3 % 1009,1 hPa 1,0 l/m 12,0 km/h (2 Bft) 0 min 36,7 km/h (5 Bft)
30.05.2010 19:06 20,8 C 12,4 C 0,2 UV-I 0,0 C 54 % 79 % 0 % 1009,1 hPa 1,0 l/m 13,7 km/h (3 Bft) 0 min 20,3 km/h (4 Bft)
30.05.2010 19:08 20,8 C 11,9 C 0,2 UV-I 0,0 C 54 % 80 % 0 % 1009,1 hPa 1,0 l/m 15,3 km/h (3 Bft) 0 min 24,1 km/h (4 Bft)
30.05.2010 19:10 20,8 C 11,5 C 0,2 UV-I 0,0 C 54 % 81 % 0 % 1009,1 hPa 0,1 l/m 17,7 km/h (3 Bft) 0 min 36,7 km/h (5 Bft)
30.05.2010 19:12 20,7 C 11,3 C 0,0 UV-I 0,0 C 54 % 82 % 0 % 1010,3 hPa 0,1 l/m 19,3 km/h (3 Bft) 0 min 19,0 km/h (3 Bft)
30.05.2010 19:14 20,7 C 11,1 C 0,0 UV-I 0,0 C 55 % 83 % 0 % 1010,3 hPa 0,0 l/m 19,3 km/h (3 Bft) 0 min 17,1 km/h (3 Bft)
30.05.2010 19:18 20,6 C 10,7 C 0,0 UV-I 0,0 C 55 % 84 % 0 % 1010,3 hPa 0,1 l/m 19,7 km/h (3 Bft) 0 min 25,4 km/h (4 Bft)
30.05.2010 19:20 20,6 C 10,4 C 0,0 UV-I 0,0 C 55 % 84 % 0 % 1010,3 hPa 0,0 l/m 20,1 km/h (4 Bft) 0 min 10,9 km/h (2 Bft)
30.05.2010 19:22 20,5 C 10,4 C 0,1 UV-I 0,0 C 55 % 85 % 0 % 1010,3 hPa 0,0 l/m 17,7 km/h (3 Bft) 0 min 9,3 km/h (2 Bft)
30.05.2010 19:24 20,5 C 10,3 C 0,1 UV-I 0,0 C 55 % 85 % 0 % 1010,3 hPa 0,0 l/m 16,1 km/h (3 Bft) 0 min 8,0 km/h (2 Bft)
30.05.2010 19:26 20,5 C 10,3 C 0,1 UV-I 0,0 C 54 % 86 % 0 % 1010,3 hPa 0,0 l/m 16,1 km/h (3 Bft) 0 min 10,3 km/h (2 Bft)
30.05.2010 19:30 20,4 C 10,2 C 0,1 UV-I 0,0 C 54 % 86 % 0 % 1010,3 hPa 0,1 l/m 13,7 km/h (3 Bft) 0 min 11,9 km/h (2 Bft)
30.05.2010 19:32 20,4 C 10,2 C 0,1 UV-I 0,0 C 54 % 86 % 0 % 1009,9 hPa 0,0 l/m 12,0 km/h (2 Bft) 0 min 11,6 km/h (2 Bft)
30.05.2010 19:34 20,2 C 10,0 C 0,1 UV-I 0,0 C 55 % 86 % 0 % 1009,9 hPa 0,0 l/m 10,8 km/h (2 Bft) 0 min 10,0 km/h (2 Bft)
30.05.2010 19:36 20,3 C 10,1 C 0,3 UV-I 0,0 C 55 % 87 % 0 % 1009,9 hPa 0,0 l/m 9,6 km/h (2 Bft) 0 min 6,4 km/h (2 Bft)
30.05.2010 19:38 20,2 C 10,1 C 0,3 UV-I 0,0 C 55 % 87 % 0 % 1009,9 hPa 0,0 l/m 7,6 km/h (2 Bft) 0 min 5,1 km/h (1 Bft)
30.05.2010 19:40 20,2 C 10,1 C 0,3 UV-I 0,0 C 55 % 88 % 0 % 1009,9 hPa 0,0 l/m 7,6 km/h (2 Bft) 0 min 8,4 km/h (2 Bft)
30.05.2010 19:44 20,2 C 10,0 C 0,2 UV-I 0,0 C 55 % 88 % 0 % 1009,9 hPa 0,0 l/m 4,4 km/h (1 Bft) 0 min 3,9 km/h (1 Bft)
30.05.2010 19:46 20,1 C 10,0 C 0,0 UV-I 0,0 C 55 % 88 % 0 % 1009,9 hPa 0,0 l/m 3,6 km/h (1 Bft) 0 min 5,8 km/h (2 Bft)
30.05.2010 19:48 20,1 C 10,0 C 0,0 UV-I 0,0 C 55 % 88 % 0 % 1009,9 hPa 0,0 l/m 3,2 km/h (1 Bft) 0 min 0,0 km/h (0 Bft)
30.05.2010 19:50 20,1 C 10,1 C 0,0 UV-I 0,0 C 55 % 88 % 0 % 1009,9 hPa 0,0 l/m 4,4 km/h (1 Bft) 0 min 5,8 km/h (2 Bft)
30.05.2010 19:52 20,0 C 10,0 C 0,2 UV-I 0,0 C 55 % 88 % 0 % 1009,4 hPa 0,0 l/m 4,4 km/h (1 Bft) 0 min 0,0 km/h (0 Bft)
30.05.2010 19:56 20,0 C 10,0 C 0,5 UV-I 0,0 C 55 % 88 % 0 % 1009,4 hPa 0,0 l/m 4,8 km/h (1 Bft) 0 min 3,2 km/h (1 Bft)
30.05.2010 19:58 20,0 C 10,0 C 0,5 UV-I 0,0 C 55 % 88 % 0 % 1009,4 hPa 0,0 l/m 4,8 km/h (1 Bft) 0 min 3,5 km/h (1 Bft)
30.05.2010 20:00 20,0 C 10,0 C 0,5 UV-I 0,0 C 55 % 88 % 0 % 1009,4 hPa 0,0 l/m 3,6 km/h (1 Bft) 0 min 0,0 km/h (0 Bft)
30.05.2010 20:02 20,0 C 10,1 C 0,5 UV-I 0,0 C 55 % 88 % 0 % 1009,4 hPa 0,0 l/m 3,2 km/h (1 Bft) 0 min 4,5 km/h (1 Bft)
30.05.2010 20:04 20,0 C 10,1 C 0,5 UV-I 0,0 C 55 % 88 % 0 % 1009,4 hPa 0,0 l/m 2,4 km/h (1 Bft) 0 min 0,0 km/h (0 Bft)
30.05.2010 20:06 20,0 C 10,1 C 0,7 UV-I 0,0 C 55 % 88 % 0 % 1009,4 hPa 0,0 l/m 1,6 km/h (1 Bft) 0 min 6,4 km/h (2 Bft)
30.05.2010 20:08 20,0 C 10,2 C 0,7 UV-I 0,0 C 55 % 88 % 0 % 1009,4 hPa 0,0 l/m 1,2 km/h (1 Bft) 0 min 5,5 km/h (1 Bft)
30.05.2010 20:10 19,9 C 10,2 C 0,7 UV-I 0,0 C 55 % 88 % 0 % 1009,4 hPa 0,0 l/m 1,2 km/h (1 Bft) 0 min 0,0 km/h (0 Bft)
30.05.2010 20:12 19,9 C 10,3 C 0,6 UV-I 0,0 C 55 % 88 % 0 % 1009,4 hPa 0,0 l/m 1,6 km/h (1 Bft) 0 min 0,0 km/h (0 Bft)
30.05.2010 20:14 19,9 C 10,1 C 0,6 UV-I 0,0 C 55 % 88 % 0 % 1009,4 hPa 0,0 l/m 1,6 km/h (1 Bft) 0 min 3,5 km/h (1 Bft)
30.05.2010 20:16 19,9 C 10,2 C 0,2 UV-I 0,0 C 55 % 88 % 0 % 1009,4 hPa 0,0 l/m 1,6 km/h (1 Bft) 0 min 0,0 km/h (0 Bft)
30.05.2010 20:18 19,9 C 10,2 C 0,2 UV-I 0,0 C 55 % 88 % 0 % 1009,4 hPa 0,0 l/m 1,6 km/h (1 Bft) 0 min 0,0 km/h (0 Bft)
30.05.2010 20:22 19,9 C 10,1 C 0,2 UV-I 0,0 C 56 % 88 % 0 % 1009,4 hPa 0,0 l/m 2,0 km/h (1 Bft) 0 min 7,7 km/h (2 Bft)
30.05.2010 20:24 19,9 C 10,2 C 0,2 UV-I 0,0 C 56 % 88 % 0 % 1009,4 hPa 0,0 l/m 2,0 km/h (1 Bft) 0 min 0,0 km/h (0 Bft)
30.05.2010 20:26 19,9 C 10,1 C 0,2 UV-I 0,0 C 56 % 88 % 0 % 1009,4 hPa 0,0 l/m 2,0 km/h (1 Bft) 0 min 0,0 km/h (0 Bft)
30.05.2010 20:28 19,8 C 10,2 C 0,2 UV-I 0,0 C 56 % 88 % 0 % 1009,4 hPa 0,0 l/m 1,6 km/h (1 Bft) 0 min 0,0 km/h (0 Bft)
30.05.2010 20:30 19,8 C 10,1 C 0,2 UV-I 0,0 C 55 % 88 % 0 % 1009,4 hPa 0,0 l/m 1,6 km/h (1 Bft) 0 min 0,0 km/h (0 Bft)
30.05.2010 20:32 19,8 C 10,1 C 0,2 UV-I 0,0 C 56 % 88 % 0 % 1009,2 hPa 0,0 l/m 2,0 km/h (1 Bft) 0 min 9,0 km/h (2 Bft)
30.05.2010 20:34 19,8 C 10,2 C 0,2 UV-I 0,0 C 55 % 88 % 0 % 1009,2 hPa 0,0 l/m 1,6 km/h (1 Bft) 0 min 4,8 km/h (1 Bft)
30.05.2010 20:36 19,8 C 10,1 C 0,1 UV-I 0,0 C 55 % 88 % 0 % 1009,2 hPa 0,0 l/m 2,0 km/h (1 Bft) 0 min 0,0 km/h (0 Bft)
30.05.2010 20:38 19,8 C 10,1 C 0,1 UV-I 0,0 C 55 % 88 % 0 % 1009,2 hPa 0,0 l/m 2,0 km/h (1 Bft) 0 min 0,0 km/h (0 Bft)
30.05.2010 20:40 19,8 C 10,1 C 0,1 UV-I 0,0 C 55 % 87 % 0 % 1009,2 hPa 0,0 l/m 2,0 km/h (1 Bft) 0 min 0,0 km/h (0 Bft)
30.05.2010 20:42 19,8 C 10,1 C 0,0 UV-I 0,0 C 55 % 87 % 0 % 1009,2 hPa 0,0 l/m 2,0 km/h (1 Bft) 0 min 0,0 km/h (0 Bft)
30.05.2010 20:44 19,8 C 10,1 C 0,0 UV-I 0,0 C 55 % 87 % 0 % 1009,2 hPa 0,0 l/m 1,2 km/h (1 Bft) 0 min 8,4 km/h (2 Bft)
30.05.2010 20:46 19,8 C 10,1 C 0,1 UV-I 0,0 C 55 % 87 % 0 % 1009,2 hPa 0,0 l/m 1,2 km/h (1 Bft) 0 min 0,0 km/h (0 Bft)
30.05.2010 20:48 19,8 C 10,0 C 0,1 UV-I 0,0 C 55 % 87 % 0 % 1009,2 hPa 0,0 l/m 1,2 km/h (1 Bft) 0 min 3,9 km/h (1 Bft)
30.05.2010 20:50 19,8 C 10,0 C 0,1 UV-I 0,0 C 55 % 87 % 0 % 1009,2 hPa 0,0 l/m 2,0 km/h (1 Bft) 0 min 4,2 km/h (1 Bft)
30.05.2010 20:52 19,8 C 10,0 C 0,1 UV-I 0,0 C 55 % 87 % 0 % 1009,6 hPa 0,0 l/m 2,4 km/h (1 Bft) 0 min 5,1 km/h (1 Bft)
30.05.2010 20:54 19,8 C 10,0 C 0,1 UV-I 0,0 C 55 % 87 % 0 % 1009,6 hPa 0,0 l/m 2,8 km/h (1 Bft) 0 min 3,5 km/h (1 Bft)
30.05.2010 20:56 19,7 C 10,1 C 0,0 UV-I 0,0 C 55 % 87 % 0 % 1009,6 hPa 0,0 l/m 2,4 km/h (1 Bft) 0 min 3,9 km/h (1 Bft)
30.05.2010 20:58 19,7 C 9,9 C 0,0 UV-I 0,0 C 55 % 87 % 0 % 1009,6 hPa 0,0 l/m 2,8 km/h (1 Bft) 0 min 5,1 km/h (1 Bft)
30.05.2010 21:00 19,7 C 9,9 C 0,0 UV-I 0,0 C 55 % 87 % 0 % 1009,6 hPa 0,0 l/m 2,8 km/h (1 Bft) 0 min 6,4 km/h (2 Bft)
30.05.2010 21:02 19,7 C 10,0 C 0,0 UV-I 0,0 C 55 % 86 % 0 % 1009,6 hPa 0,0 l/m 3,2 km/h (1 Bft) 0 min 4,8 km/h (1 Bft)
30.05.2010 21:04 19,7 C 10,0 C 0,0 UV-I 0,0 C 55 % 87 % 0 % 1009,6 hPa 0,0 l/m 2,4 km/h (1 Bft) 0 min 0,0 km/h (0 Bft)
30.05.2010 21:06 19,7 C 10,0 C 0,0 UV-I 0,0 C 55 % 87 % 0 % 1009,6 hPa 0,0 l/m 1,6 km/h (1 Bft) 0 min 0,0 km/h (0 Bft)
30.05.2010 21:08 19,7 C 10,0 C 0,0 UV-I 0,0 C 55 % 86 % 0 % 1009,6 hPa 0,0 l/m 2,0 km/h (1 Bft) 0 min 5,1 km/h (1 Bft)
30.05.2010 21:10 19,7 C 9,9 C 0,0 UV-I 0,0 C 55 % 86 % 0 % 1009,6 hPa 0,0 l/m 1,6 km/h (1 Bft) 0 min 5,5 km/h (1 Bft)
30.05.2010 21:12 19,7 C 9,9 C 0,0 UV-I 0,0 C 55 % 86 % 0 % 1009,5 hPa 0,0 l/m 1,2 km/h (1 Bft) 0 min 0,0 km/h (0 Bft)
30.05.2010 21:14 19,7 C 9,9 C 0,0 UV-I 0,0 C 55 % 86 % 0 % 1009,5 hPa 0,0 l/m 1,2 km/h (1 Bft) 0 min 0,0 km/h (0 Bft)
30.05.2010 21:16 19,6 C 9,9 C 0,0 UV-I 0,0 C 55 % 86 % 0 % 1009,5 hPa 0,0 l/m 1,2 km/h (1 Bft) 0 min 0,0 km/h (0 Bft)
30.05.2010 21:18 19,6 C 9,9 C 0,0 UV-I 0,0 C 55 % 86 % 0 % 1009,5 hPa 0,0 l/m 1,2 km/h (1 Bft) 0 min 6,1 km/h (2 Bft)
30.05.2010 21:20 19,6 C 9,8 C 0,0 UV-I 0,0 C 55 % 87 % 0 % 1009,5 hPa 0,0 l/m 1,2 km/h (1 Bft) 0 min 0,0 km/h (0 Bft)
30.05.2010 21:22 19,6 C 9,9 C 0,0 UV-I 0,0 C 55 % 87 % 0 % 1009,5 hPa 0,0 l/m 1,2 km/h (1 Bft) 0 min 0,0 km/h (0 Bft)
30.05.2010 21:24 19,6 C 9,9 C 0,0 UV-I 0,0 C 55 % 87 % 0 % 1009,5 hPa 0,0 l/m 0,4 km/h (0 Bft) 0 min 0,0 km/h (0 Bft)
30.05.2010 21:26 19,6 C 9,8 C 0,0 UV-I 0,0 C 55 % 87 % 0 % 1009,5 hPa 0,0 l/m 0,4 km/h (0 Bft) 0 min 3,2 km/h (1 Bft)
30.05.2010 21:28 19,6 C 9,9 C 0,0 UV-I 0,0 C 55 % 87 % 0 % 1009,5 hPa 0,0 l/m 0,8 km/h (0 Bft) 0 min 0,0 km/h (0 Bft)
30.05.2010 21:30 19,6 C 9,7 C 0,0 UV-I 0,0 C 55 % 87 % 0 % 1009,5 hPa 0,0 l/m 0,4 km/h (0 Bft) 0 min 0,0 km/h (0 Bft)
30.05.2010 21:32 19,6 C 9,6 C 0,0 UV-I 0,0 C 55 % 87 % 0 % 1009,7 hPa 0,0 l/m 0,8 km/h (0 Bft) 0 min 4,8 km/h (1 Bft)
30.05.2010 21:34 19,6 C 9,7 C 0,0 UV-I 0,0 C 55 % 87 % 0 % 1009,7 hPa 0,0 l/m 1,6 km/h (1 Bft) 0 min 4,2 km/h (1 Bft)
30.05.2010 21:38 19,6 C 9,6 C 0,0 UV-I 0,0 C 55 % 87 % 0 % 1009,7 hPa 0,0 l/m 1,6 km/h (1 Bft) 0 min 0,0 km/h (0 Bft)
30.05.2010 21:40 19,6 C 9,6 C 0,0 UV-I 0,0 C 55 % 87 % 0 % 1009,7 hPa 0,0 l/m 1,6 km/h (1 Bft) 0 min 3,5 km/h (1 Bft)
30.05.2010 21:42 19,6 C 9,6 C 0,0 UV-I 0,0 C 55 % 87 % 0 % 1009,7 hPa 0,0 l/m 1,6 km/h (1 Bft) 0 min 0,0 km/h (0 Bft)
30.05.2010 21:44 19,5 C 9,7 C 0,0 UV-I 0,0 C 55 % 87 % 0 % 1009,7 hPa 0,0 l/m 0,8 km/h (0 Bft) 0 min 0,0 km/h (0 Bft)
30.05.2010 21:46 19,5 C 9,6 C 0,0 UV-I 0,0 C 55 % 87 % 0 % 1009,7 hPa 0,0 l/m 1,6 km/h (1 Bft) 0 min 3,9 km/h (1 Bft)
30.05.2010 21:48 19,5 C 9,5 C 0,0 UV-I 0,0 C 55 % 87 % 0 % 1009,7 hPa 0,0 l/m 1,6 km/h (1 Bft) 0 min 0,0 km/h (0 Bft)
30.05.2010 21:50 19,5 C 9,6 C 0,0 UV-I 0,0 C 55 % 87 % 0 % 1009,7 hPa 0,0 l/m 2,0 km/h (1 Bft) 0 min 0,0 km/h (0 Bft)
30.05.2010 21:52 19,5 C 9,5 C 0,0 UV-I 0,0 C 55 % 87 % 0 % 1010,0 hPa 0,0 l/m 1,6 km/h (1 Bft) 0 min 0,0 km/h (0 Bft)
30.05.2010 21:54 19,5 C 9,5 C 0,0 UV-I 0,0 C 55 % 88 % 0 % 1010,0 hPa 0,0 l/m 1,6 km/h (1 Bft) 0 min 0,0 km/h (0 Bft)
30.05.2010 21:56 19,5 C 9,5 C 0,0 UV-I 0,0 C 55 % 88 % 0 % 1010,0 hPa 0,0 l/m 1,2 km/h (1 Bft) 0 min 0,0 km/h (0 Bft)
30.05.2010 21:58 19,5 C 9,4 C 0,0 UV-I 0,0 C 55 % 88 % 0 % 1010,0 hPa 0,0 l/m 1,2 km/h (1 Bft) 0 min 8,0 km/h (2 Bft)
30.05.2010 22:02 19,4 C 9,5 C 0,0 UV-I 0,0 C 55 % 88 % 0 % 1010,0 hPa 0,0 l/m 1,6 km/h (1 Bft) 0 min 4,8 km/h (1 Bft)
30.05.2010 22:04 19,4 C 9,5 C 0,0 UV-I 0,0 C 55 % 87 % 0 % 1010,0 hPa 0,0 l/m 1,6 km/h (1 Bft) 0 min 0,0 km/h (0 Bft)
30.05.2010 22:06 19,4 C 9,5 C 0,0 UV-I 0,0 C 55 % 87 % 0 % 1010,0 hPa 0,0 l/m 2,0 km/h (1 Bft) 0 min 3,5 km/h (1 Bft)
30.05.2010 22:08 19,4 C 9,5 C 0,0 UV-I 0,0 C 55 % 87 % 0 % 1010,0 hPa 0,0 l/m 2,0 km/h (1 Bft) 0 min 0,0 km/h (0 Bft)
30.05.2010 22:10 19,4 C 9,5 C 0,0 UV-I 0,0 C 55 % 87 % 0 % 1010,0 hPa 0,0 l/m 1,6 km/h (1 Bft) 0 min 5,1 km/h (1 Bft)
30.05.2010 22:14 19,4 C 9,5 C 0,0 UV-I 0,0 C 55 % 87 % 0 % 1009,8 hPa 0,0 l/m 1,2 km/h (1 Bft) 0 min 0,0 km/h (0 Bft)
30.05.2010 22:16 19,4 C 9,5 C 0,0 UV-I 0,0 C 55 % 88 % 0 % 1009,8 hPa 0,0 l/m 1,6 km/h (1 Bft) 0 min 7,1 km/h (2 Bft)
30.05.2010 22:18 19,4 C 9,5 C 0,0 UV-I 0,0 C 55 % 88 % 0 % 1009,8 hPa 0,0 l/m 1,6 km/h (1 Bft) 0 min 4,2 km/h (1 Bft)
30.05.2010 22:20 19,4 C 9,5 C 0,0 UV-I 0,0 C 55 % 88 % 0 % 1009,8 hPa 0,0 l/m 2,0 km/h (1 Bft) 0 min 0,0 km/h (0 Bft)
30.05.2010 22:22 19,4 C 9,5 C 0,0 UV-I 0,0 C 55 % 88 % 0 % 1009,8 hPa 0,0 l/m 2,4 km/h (1 Bft) 0 min 3,2 km/h (1 Bft)
30.05.2010 22:24 19,2 C 9,4 C 0,0 UV-I 0,0 C 55 % 88 % 0 % 1009,8 hPa 0,0 l/m 2,8 km/h (1 Bft) 0 min 4,5 km/h (1 Bft)
30.05.2010 22:26 19,4 C 9,4 C 0,0 UV-I 0,0 C 55 % 87 % 0 % 1009,8 hPa 0,0 l/m 2,8 km/h (1 Bft) 0 min 5,1 km/h (1 Bft)
30.05.2010 22:28 19,4 C 9,4 C 0,0 UV-I 0,0 C 54 % 87 % 0 % 1009,8 hPa 0,0 l/m 2,0 km/h (1 Bft) 0 min 0,0 km/h (0 Bft)
30.05.2010 22:30 19,4 C 9,4 C 0,0 UV-I 0,0 C 54 % 88 % 0 % 1009,8 hPa 0,0 l/m 1,6 km/h (1 Bft) 0 min 0,0 km/h (0 Bft)
30.05.2010 22:32 19,2 C 9,5 C 0,0 UV-I 0,0 C 54 % 88 % 0 % 1009,6 hPa 0,0 l/m 1,6 km/h (1 Bft) 0 min 8,7 km/h (2 Bft)
30.05.2010 22:34 19,2 C 9,5 C 0,0 UV-I 0,0 C 54 % 87 % 0 % 1009,6 hPa 0,0 l/m 1,6 km/h (1 Bft) 0 min 0,0 km/h (0 Bft)
30.05.2010 22:36 19,2 C 9,5 C 0,0 UV-I 0,0 C 54 % 87 % 0 % 1009,6 hPa 0,0 l/m 1,2 km/h (1 Bft) 0 min 0,0 km/h (0 Bft)
30.05.2010 22:38 19,3 C 9,5 C 0,0 UV-I 0,0 C 54 % 88 % 0 % 1009,6 hPa 0,0 l/m 0,8 km/h (0 Bft) 0 min 3,2 km/h (1 Bft)
30.05.2010 22:40 19,3 C 9,3 C 0,0 UV-I 0,0 C 54 % 87 % 0 % 1009,6 hPa 0,0 l/m 0,8 km/h (0 Bft) 0 min 0,0 km/h (0 Bft)
30.05.2010 22:42 19,2 C 9,3 C 0,0 UV-I 0,0 C 54 % 87 % 0 % 1009,6 hPa 0,0 l/m 1,2 km/h (1 Bft) 0 min 0,0 km/h (0 Bft)
30.05.2010 22:44 19,2 C 9,3 C 0,0 UV-I 0,0 C 54 % 87 % 0 % 1009,6 hPa 0,0 l/m 0,8 km/h (0 Bft) 0 min 0,0 km/h (0 Bft)
30.05.2010 22:46 19,3 C 9,2 C 0,0 UV-I 0,0 C 54 % 87 % 0 % 1009,6 hPa 0,0 l/m 0,4 km/h (0 Bft) 0 min 0,0 km/h (0 Bft)
30.05.2010 22:48 19,2 C 9,2 C 0,0 UV-I 0,0 C 54 % 87 % 0 % 1009,6 hPa 0,0 l/m 0,4 km/h (0 Bft) 0 min 3,2 km/h (1 Bft)
30.05.2010 22:50 19,2 C 9,3 C 0,0 UV-I 0,0 C 54 % 87 % 0 % 1009,6 hPa 0,0 l/m 0,8 km/h (0 Bft) 0 min 0,0 km/h (0 Bft)
30.05.2010 22:52 19,2 C 9,2 C 0,0 UV-I 0,0 C 54 % 87 % 0 % 1009,7 hPa 0,0 l/m 0,4 km/h (0 Bft) 0 min 0,0 km/h (0 Bft)
30.05.2010 22:54 19,2 C 9,1 C 0,0 UV-I 0,0 C 54 % 88 % 0 % 1009,7 hPa 0,0 l/m 0,4 km/h (0 Bft) 0 min 0,0 km/h (0 Bft)
30.05.2010 22:56 19,2 C 9,1 C 0,0 UV-I 0,0 C 54 % 88 % 0 % 1009,7 hPa 0,0 l/m 0,4 km/h (0 Bft) 0 min 0,0 km/h (0 Bft)
30.05.2010 22:58 19,2 C 9,1 C 0,0 UV-I 0,0 C 54 % 88 % 0 % 1009,7 hPa 0,0 l/m 0,8 km/h (0 Bft) 0 min 10,0 km/h (2 Bft)
30.05.2010 23:00 19,2 C 9,1 C 0,0 UV-I 0,0 C 54 % 88 % 0 % 1009,7 hPa 0,0 l/m 0,8 km/h (0 Bft) 0 min 3,2 km/h (1 Bft)
30.05.2010 23:02 19,2 C 9,1 C 0,0 UV-I 0,0 C 54 % 88 % 0 % 1009,7 hPa 0,0 l/m 0,8 km/h (0 Bft) 0 min 0,0 km/h (0 Bft)
30.05.2010 23:04 19,2 C 9,1 C 0,0 UV-I 0,0 C 54 % 88 % 0 % 1009,7 hPa 0,0 l/m 0,8 km/h (0 Bft) 0 min 0,0 km/h (0 Bft)
30.05.2010 23:06 19,2 C 9,1 C 0,0 UV-I 0,0 C 54 % 88 % 0 % 1009,7 hPa 0,0 l/m 0,8 km/h (0 Bft) 0 min 0,0 km/h (0 Bft)
30.05.2010 23:08 19,2 C 8,9 C 0,0 UV-I 0,0 C 54 % 88 % 0 % 1009,7 hPa 0,0 l/m 0,8 km/h (0 Bft) 0 min 0,0 km/h (0 Bft)
30.05.2010 23:10 19,2 C 8,9 C 0,0 UV-I 0,0 C 54 % 88 % 0 % 1009,7 hPa 0,0 l/m 0,8 km/h (0 Bft) 0 min 3,5 km/h (1 Bft)
30.05.2010 23:12 19,2 C 8,9 C 0,0 UV-I 0,0 C 54 % 88 % 0 % 1009,9 hPa 0,0 l/m 0,4 km/h (0 Bft) 0 min 0,0 km/h (0 Bft)
30.05.2010 23:14 19,2 C 8,9 C 0,0 UV-I 0,0 C 54 % 88 % 0 % 1009,9 hPa 0,0 l/m 0,8 km/h (0 Bft) 0 min 6,1 km/h (2 Bft)
30.05.2010 23:16 19,2 C 9,1 C 0,0 UV-I 0,0 C 54 % 89 % 0 % 1009,9 hPa 0,0 l/m 1,2 km/h (1 Bft) 0 min 6,1 km/h (2 Bft)
30.05.2010 23:18 19,1 C 9,1 C 0,0 UV-I 0,0 C 54 % 88 % 0 % 1009,9 hPa 0,0 l/m 1,2 km/h (1 Bft) 0 min 0,0 km/h (0 Bft)
30.05.2010 23:20 19,1 C 9,1 C 0,0 UV-I 0,0 C 54 % 88 % 0 % 1009,9 hPa 0,0 l/m 1,6 km/h (1 Bft) 0 min 0,0 km/h (0 Bft)
30.05.2010 23:22 19,1 C 9,1 C 0,0 UV-I 0,0 C 54 % 88 % 0 % 1009,9 hPa 0,0 l/m 1,6 km/h (1 Bft) 0 min 4,2 km/h (1 Bft)
30.05.2010 23:24 19,1 C 9,2 C 0,0 UV-I 0,0 C 54 % 88 % 0 % 1009,9 hPa 0,0 l/m 2,4 km/h (1 Bft) 0 min 3,5 km/h (1 Bft)
30.05.2010 23:26 19,1 C 9,2 C 0,0 UV-I 0,0 C 54 % 88 % 0 % 1009,9 hPa 0,0 l/m 2,4 km/h (1 Bft) 0 min 0,0 km/h (0 Bft)
30.05.2010 23:28 19,1 C 9,2 C 0,0 UV-I 0,0 C 54 % 88 % 0 % 1009,9 hPa 0,0 l/m 2,0 km/h (1 Bft) 0 min 0,0 km/h (0 Bft)
30.05.2010 23:30 19,1 C 9,2 C 0,0 UV-I 0,0 C 55 % 88 % 0 % 1009,9 hPa 0,0 l/m 1,6 km/h (1 Bft) 0 min 0,0 km/h (0 Bft)
30.05.2010 23:32 19,1 C 9,2 C 0,0 UV-I 0,0 C 55 % 88 % 0 % 1009,8 hPa 0,0 l/m 1,6 km/h (1 Bft) 0 min 0,0 km/h (0 Bft)
30.05.2010 23:34 19,1 C 9,2 C 0,0 UV-I 0,0 C 55 % 88 % 0 % 1009,8 hPa 0,0 l/m 0,8 km/h (0 Bft) 0 min 6,4 km/h (2 Bft)
30.05.2010 23:36 19,1 C 9,3 C 0,0 UV-I 0,0 C 55 % 87 % 0 % 1009,8 hPa 0,0 l/m 1,2 km/h (1 Bft) 0 min 6,1 km/h (2 Bft)
30.05.2010 23:38 19,0 C 9,3 C 0,0 UV-I 0,0 C 55 % 87 % 0 % 1009,8 hPa 0,0 l/m 1,6 km/h (1 Bft) 0 min 4,8 km/h (1 Bft)
30.05.2010 23:40 19,0 C 9,4 C 0,0 UV-I 0,0 C 55 % 88 % 0 % 1009,8 hPa 0,0 l/m 2,0 km/h (1 Bft) 0 min 3,5 km/h (1 Bft)
30.05.2010 23:42 19,0 C 9,4 C 0,0 UV-I 0,0 C 55 % 88 % 0 % 1009,8 hPa 0,0 l/m 2,4 km/h (1 Bft) 0 min 0,0 km/h (0 Bft)
30.05.2010 23:44 19,0 C 9,5 C 0,0 UV-I 0,0 C 54 % 87 % 0 % 1009,8 hPa 0,0 l/m 2,8 km/h (1 Bft) 0 min 3,9 km/h (1 Bft)
30.05.2010 23:46 19,0 C 9,5 C 0,0 UV-I 0,0 C 55 % 87 % 0 % 1009,8 hPa 0,0 l/m 2,0 km/h (1 Bft) 0 min 0,0 km/h (0 Bft)
30.05.2010 23:48 19,0 C 9,5 C 0,0 UV-I 0,0 C 55 % 87 % 0 % 1009,8 hPa 0,0 l/m 2,0 km/h (1 Bft) 0 min 4,8 km/h (1 Bft)
30.05.2010 23:50 19,0 C 9,5 C 0,0 UV-I 0,0 C 55 % 87 % 0 % 1009,8 hPa 0,0 l/m 2,0 km/h (1 Bft) 0 min 5,5 km/h (1 Bft)
30.05.2010 23:54 19,0 C 9,5 C 0,0 UV-I 0,0 C 55 % 86 % 0 % 1009,9 hPa 0,0 l/m 3,6 km/h (1 Bft) 0 min 11,9 km/h (2 Bft)
30.05.2010 23:58 19,0 C 9,6 C 0,0 UV-I 0,0 C 55 % 86 % 0 % 1009,9 hPa 0,0 l/m 4,4 km/h (1 Bft) 0 min 6,1 km/h (2 Bft)
_ Min-Zeit 23:38 23:08 00:00 00:00 00:00 00:00 00:00 06:32 - 21:24 - 00:03
Minimum _ 19,0 C 8,9 C 0,0 UV-I 0,0 C 49 % 77 % 0 % 1007,4 hPa - 0,4 km/h (0 Bft) - 0,0 km/h (0 Bft)
_ Max-Zeit 15:16 13:16 10:52 12:58 08:28 05:02 10:52 00:00 19:02 19:20 10:46 19:04
Maximum _ 21,4 C 16,5 C 10,9 UV-I 4,6 C 58 % 92 % 100 % 1012,1 hPa 1,0 l/m 20,1 km/h
S-SW (4 Bft)
2 min 36,7 km/h
W-SW (5 Bft)
Durchschnitt _ 20,4 C 13,3 C 1,2 UV-I 0,4 C 55 % 87 % 12 % 1008,8 hPa #7,9 l/m 5,2 km/h (1 Bft) #1:00 h 6,4 km/h (2 Bft)
© 2012 W. Hausmann